DLH712 OMDB-YSSY

Flight info

Callsign DLH712
Flight time N/A
Altitude 41000
Route OMDB ANVI7F ANVIX L223 TARDI N629 TOTOX P574 ADPOP DCT DARMI DCT ERVIS DCT GUNIM N563 ISVUR L762 ASUNA DCT IDBUD T24 SURGA DCT MASRI M635 SUMDI DCT UDONO M635 BLI G326 ONOXA A587 DOPUK DCT HERMA DCT AGAGO DCT VAGPO DCT DERRY V180 AKMIR DCT RIVET DCT YSSY
Aircraft B748/H-SDE3FGHIM1M2RWXY/LB1

Departure

Time 2026-04-23 06:25
Airport Dubai International Airport (OMDB)

Arrival

Time N/A
Airport Sydney Kingsford Smith International Airport (YSSY)
Time Latitude Longitude Altitude Speed Heading
2026-04-23 06:00 25.25377 55.35398 20 ft 0 kts 213°
2026-04-23 06:11 25.25388 55.35405 28 ft 2 kts 214°
2026-04-23 06:11 25.25403 55.35407 25 ft 2 kts 176°
2026-04-23 06:11 25.25414 55.35407 28 ft 2 kts 238°
2026-04-23 06:12 25.25414 55.35406 28 ft 0 kts 246°
2026-04-23 06:12 25.25422 55.35421 28 ft 3 kts 229°
2026-04-23 06:12 25.25462 55.35442 28 ft 3 kts 145°
2026-04-23 06:13 25.25478 55.35422 28 ft 3 kts 117°
2026-04-23 06:13 25.25481 55.35415 28 ft 0 kts 106°
2026-04-23 06:15 25.25481 55.35416 28 ft 0 kts 106°
2026-04-23 06:16 25.25472 55.35450 28 ft 14 kts 106°
2026-04-23 06:16 25.25447 55.35543 24 ft 0 kts 106°
2026-04-23 06:17 25.25435 55.35616 24 ft 16 kts 96°
2026-04-23 06:17 25.25473 55.35743 12 ft 22 kts 47°
2026-04-23 06:17 25.25603 55.35841 9 ft 24 kts 30°
2026-04-23 06:18 25.25713 55.35921 10 ft 13 kts 47°
2026-04-23 06:18 25.25732 55.35955 13 ft 4 kts 66°
2026-04-23 06:18 25.25740 55.36003 19 ft 1 kts 90°
2026-04-23 06:18 25.25721 55.36066 22 ft 15 kts 122°
2026-04-23 06:19 25.25668 55.36133 22 ft 19 kts 129°
2026-04-23 06:19 25.25586 55.36264 23 ft 23 kts 122°
2026-04-23 06:19 25.25495 55.36424 21 ft 26 kts 122°
2026-04-23 06:19 25.25399 55.36596 19 ft 28 kts 121°
2026-04-23 06:20 25.25296 55.36780 24 ft 28 kts 122°
2026-04-23 06:20 25.25193 55.36964 26 ft 28 kts 121°
2026-04-23 06:20 25.25093 55.37145 30 ft 27 kts 121°
2026-04-23 06:20 25.24996 55.37326 33 ft 27 kts 121°
2026-04-23 06:21 25.24894 55.37505 34 ft 28 kts 122°
2026-04-23 06:21 25.24793 55.37685 34 ft 27 kts 121°
2026-04-23 06:21 25.24690 55.37870 34 ft 29 kts 122°
2026-04-23 06:21 25.24584 55.38060 40 ft 29 kts 122°
2026-04-23 06:22 25.24502 55.38197 42 ft 8 kts 115°
2026-04-23 06:22 25.24497 55.38209 42 ft 0 kts 110°
2026-04-23 06:22 25.24492 55.38253 42 ft 11 kts 89°
2026-04-23 06:22 25.24531 55.38340 49 ft 15 kts 42°
2026-04-23 06:23 25.24630 55.38362 45 ft 4 kts 346°
2026-04-23 06:23 25.24635 55.38361 47 ft 0 kts 345°
2026-04-23 06:23 25.24667 55.38339 46 ft 12 kts 320°
2026-04-23 06:24 25.24704 55.38218 46 ft 14 kts 287°
2026-04-23 06:24 25.24715 55.38188 44 ft 0 kts 294°
2026-04-23 06:24 25.24717 55.38183 44 ft 3 kts 295°
2026-04-23 06:24 25.24854 55.37922 42 ft 79 kts 301°
2026-04-23 06:25 25.25284 55.37162 37 ft 152 kts 302°
2026-04-23 06:25 25.25947 55.35968 51 ft 205 kts 303°
2026-04-23 06:25 25.26669 55.34601 443 ft 205 kts 300°
2026-04-23 06:25 25.27354 55.33244 858 ft 209 kts 300°
2026-04-23 06:26 25.28142 55.31818 1040 ft 228 kts 301°
2026-04-23 06:26 25.29005 55.30258 1119 ft 241 kts 289°
2026-04-23 06:26 25.29171 55.28431 1316 ft 238 kts 255°
2026-04-23 06:26 25.28546 55.26758 1884 ft 236 kts 240°
2026-04-23 06:27 25.27739 55.25139 2469 ft 244 kts 242°
2026-04-23 06:27 25.26965 55.23441 3093 ft 249 kts 245°
2026-04-23 06:27 25.26241 55.21689 3739 ft 252 kts 246°
2026-04-23 06:27 25.25506 55.19923 4406 ft 255 kts 244°
2026-04-23 06:28 25.24676 55.18185 5076 ft 256 kts 228°
2026-04-23 06:28 25.23276 55.17017 5810 ft 255 kts 199°
2026-04-23 06:28 25.21533 55.16747 6557 ft 255 kts 179°
2026-04-23 06:28 25.19754 55.16986 7140 ft 264 kts 160°
2026-04-23 06:29 25.18156 55.18101 7866 ft 285 kts 134°
2026-04-23 06:29 25.17023 55.19940 8596 ft 304 kts 120°
2026-04-23 06:29 25.16058 55.22096 9312 ft 323 kts 117°
2026-04-23 06:29 25.15042 55.24387 10009 ft 340 kts 120°
2026-04-23 06:30 25.13893 55.26746 10668 ft 357 kts 121°
2026-04-23 06:30 25.12670 55.29208 11359 ft 374 kts 121°
2026-04-23 06:30 25.11419 55.31805 12048 ft 391 kts 120°
2026-04-23 06:30 25.10207 55.34559 12749 ft 407 kts 116°
2026-04-23 06:31 25.09029 55.37460 13448 ft 421 kts 117°
2026-04-23 06:31 25.07777 55.40446 14101 ft 435 kts 117°
2026-04-23 06:31 25.06567 55.43562 14732 ft 449 kts 114°
2026-04-23 06:31 25.05343 55.46771 15364 ft 460 kts 116°
2026-04-23 06:32 25.04047 55.50034 16012 ft 472 kts 116°
2026-04-23 06:32 25.02737 55.53399 16661 ft 469 kts 115°
2026-04-23 06:32 25.01367 55.56539 17246 ft 446 kts 123°
2026-04-23 06:32 24.99773 55.59488 17894 ft 449 kts 123°
2026-04-23 06:33 24.98198 55.62413 18473 ft 453 kts 123°
2026-04-23 06:33 24.96551 55.65459 19042 ft 457 kts 123°
2026-04-23 06:33 24.94940 55.68434 19612 ft 460 kts 123°
2026-04-23 06:33 24.93187 55.71386 20201 ft 460 kts 129°
2026-04-23 06:34 24.91296 55.74235 20783 ft 462 kts 129°
2026-04-23 06:34 24.89377 55.77084 21395 ft 463 kts 129°
2026-04-23 06:34 24.87471 55.79953 22013 ft 465 kts 129°
2026-04-23 06:34 24.85574 55.82839 22621 ft 465 kts 129°
2026-04-23 06:35 24.83668 55.85719 23258 ft 465 kts 129°
2026-04-23 06:35 24.81732 55.88580 23822 ft 465 kts 130°
2026-04-23 06:35 24.79787 55.91415 24354 ft 464 kts 130°
2026-04-23 06:35 24.77774 55.94175 24914 ft 458 kts 139°
2026-04-23 06:36 24.75519 55.96546 25480 ft 455 kts 140°
2026-04-23 06:36 24.73205 55.98923 26044 ft 452 kts 140°
2026-04-23 06:36 24.70909 56.01274 26610 ft 449 kts 140°
2026-04-23 06:36 24.68629 56.03619 27198 ft 446 kts 140°
2026-04-23 06:37 24.66374 56.05948 27784 ft 442 kts 140°
2026-04-23 06:37 24.64140 56.08253 28354 ft 438 kts 140°
2026-04-23 06:37 24.61921 56.10534 28969 ft 434 kts 140°
2026-04-23 06:37 24.59733 56.12782 29555 ft 429 kts 140°
2026-04-23 06:38 24.57570 56.15008 30124 ft 423 kts 138°
2026-04-23 06:38 24.55601 56.17387 30657 ft 417 kts 133°
2026-04-23 06:38 24.53736 56.19782 31161 ft 408 kts 133°
2026-04-23 06:38 24.51914 56.22128 31649 ft 397 kts 134°
2026-04-23 06:39 24.50136 56.24388 32122 ft 385 kts 134°
2026-04-23 06:39 24.48398 56.26588 32394 ft 379 kts 134°
2026-04-23 06:39 24.46662 56.28792 32228 ft 387 kts 134°
2026-04-23 06:39 24.44874 56.31064 31899 ft 398 kts 133°
2026-04-23 06:40 24.41274 56.35655 32326 ft 387 kts 134°
2026-04-23 06:40 24.39556 56.37836 32561 ft 381 kts 134°
2026-04-23 06:40 24.37803 56.40052 32344 ft 390 kts 134°
2026-04-23 06:41 24.36001 56.42334 32046 ft 401 kts 134°
2026-04-23 06:41 24.34178 56.44653 32134 ft 399 kts 134°
2026-04-23 06:41 24.32392 56.46926 32542 ft 388 kts 134°
2026-04-23 06:41 24.30639 56.49145 32748 ft 383 kts 134°
2026-04-23 06:42 24.28979 56.51477 32439 ft 396 kts 129°
2026-04-23 06:42 24.27331 56.53962 32086 ft 408 kts 128°
2026-04-23 06:42 24.25659 56.56468 32320 ft 402 kts 128°
2026-04-23 06:42 24.24048 56.58899 32848 ft 387 kts 128°
2026-04-23 06:43 24.22477 56.61270 33005 ft 384 kts 129°
2026-04-23 06:43 24.20878 56.63668 32616 ft 397 kts 128°
2026-04-23 06:43 24.19217 56.66159 32300 ft 409 kts 128°
2026-04-23 06:43 24.17550 56.68673 32538 ft 403 kts 128°
2026-04-23 06:44 24.15938 56.71104 33055 ft 388 kts 129°
2026-04-23 06:44 24.14355 56.73478 33164 ft 387 kts 129°
2026-04-23 06:44 24.12739 56.75892 32774 ft 400 kts 129°
2026-04-23 06:44 24.11070 56.78393 32482 ft 411 kts 128°
2026-04-23 06:45 24.09401 56.80907 32760 ft 403 kts 128°
2026-04-23 06:45 24.07804 56.83307 33246 ft 389 kts 129°
2026-04-23 06:45 24.04582 56.88116 32866 ft 403 kts 128°
2026-04-23 06:46 24.02903 56.90629 32597 ft 413 kts 128°
2026-04-23 06:46 24.01227 56.93147 32903 ft 404 kts 128°
2026-04-23 06:46 23.99601 56.95584 33389 ft 390 kts 129°
2026-04-23 06:46 23.98000 56.97971 33399 ft 392 kts 129°
2026-04-23 06:47 23.96357 57.00414 32957 ft 406 kts 128°
2026-04-23 06:47 23.94664 57.02944 32751 ft 414 kts 128°
2026-04-23 06:47 23.92984 57.05463 33114 ft 403 kts 128°
2026-04-23 06:47 23.91356 57.07895 33537 ft 391 kts 129°
2026-04-23 06:48 23.88087 57.12751 33070 ft 408 kts 128°
2026-04-23 06:48 23.86412 57.15247 32869 ft 415 kts 128°
2026-04-23 06:48 23.84726 57.17766 33219 ft 404 kts 128°
2026-04-23 06:49 23.83090 57.20203 33643 ft 393 kts 129°
2026-04-23 06:49 23.81468 57.22608 33582 ft 396 kts 129°
2026-04-23 06:49 23.79804 57.25073 33159 ft 410 kts 128°
2026-04-23 06:49 23.78099 57.27607 33004 ft 415 kts 128°
2026-04-23 06:50 23.76409 57.30126 33365 ft 405 kts 128°
2026-04-23 06:50 23.74768 57.32564 33750 ft 394 kts 129°
2026-04-23 06:50 23.71410 57.37408 33227 ft 411 kts 131°
2026-04-23 06:51 23.69612 57.39882 33099 ft 417 kts 129°
2026-04-23 06:51 23.67861 57.42357 33491 ft 405 kts 130°
2026-04-23 06:51 23.66141 57.44736 33861 ft 394 kts 131°
2026-04-23 06:51 23.64415 57.47077 33741 ft 399 kts 131°
2026-04-23 06:52 23.62653 57.49482 33293 ft 413 kts 130°
2026-04-23 06:52 23.60882 57.51930 33197 ft 417 kts 130°
2026-04-23 06:52 23.59107 57.54384 33598 ft 405 kts 130°
2026-04-23 06:52 23.57380 57.56751 33963 ft 395 kts 131°
2026-04-23 06:53 23.55655 57.59107 33828 ft 401 kts 131°
2026-04-23 06:53 23.53885 57.61530 33399 ft 415 kts 130°
2026-04-23 06:53 23.50304 57.66451 33740 ft 405 kts 130°
2026-04-23 06:54 23.48569 57.68827 34023 ft 398 kts 130°
2026-04-23 06:54 23.46829 57.71200 33831 ft 405 kts 130°
2026-04-23 06:54 23.45040 57.73639 33438 ft 417 kts 130°
2026-04-23 06:54 23.43226 57.76119 33478 ft 417 kts 130°
2026-04-23 06:55 23.41443 57.78559 33908 ft 405 kts 130°
2026-04-23 06:55 23.39706 57.80930 34118 ft 399 kts 130°
2026-04-23 06:55 23.37956 57.83309 33889 ft 408 kts 130°
2026-04-23 06:55 23.36179 57.85727 33555 ft 419 kts 130°
2026-04-23 06:56 23.32575 57.90647 34077 ft 406 kts 131°
2026-04-23 06:56 23.30826 57.93025 34278 ft 401 kts 130°
2026-04-23 06:56 23.29067 57.95413 34045 ft 410 kts 130°
2026-04-23 06:57 23.27256 57.97871 33669 ft 422 kts 130°
2026-04-23 06:57 23.25420 58.00372 33750 ft 420 kts 130°
2026-04-23 06:57 23.23725 58.02905 34119 ft 410 kts 126°
2026-04-23 06:57 23.22123 58.05445 34240 ft 406 kts 126°
2026-04-23 06:58 23.20499 58.07979 34075 ft 412 kts 126°
2026-04-23 06:58 23.18854 58.10573 33866 ft 420 kts 125°
2026-04-23 06:58 23.15579 58.15785 34209 ft 409 kts 126°
2026-04-23 06:59 23.13971 58.18319 34314 ft 407 kts 126°
2026-04-23 06:59 23.12352 58.20868 34159 ft 414 kts 125°
2026-04-23 06:59 23.10725 58.23442 33932 ft 422 kts 125°
2026-04-23 06:59 23.09041 58.26107 33982 ft 421 kts 125°
2026-04-23 07:00 23.07415 58.28672 34254 ft 412 kts 125°
2026-04-23 07:00 23.05796 58.31221 34398 ft 408 kts 125°
2026-04-23 07:00 23.04175 58.33775 34227 ft 415 kts 125°
2026-04-23 07:00 23.02520 58.36386 33997 ft 423 kts 123°
2026-04-23 07:01 23.01143 58.39220 33829 ft 427 kts 108°
2026-04-23 07:01 23.00234 58.42287 33943 ft 423 kts 101°
2026-04-23 07:01 22.99551 58.45335 34358 ft 409 kts 101°
2026-04-23 07:01 22.98858 58.48294 34582 ft 404 kts 105°
2026-04-23 07:02 22.97999 58.51225 34311 ft 414 kts 107°
2026-04-23 07:02 22.97070 58.54245 33947 ft 427 kts 105°
2026-04-23 07:02 22.95380 58.60427 34063 ft 429 kts 104°
2026-04-23 07:03 22.93604 58.66673 34196 ft 438 kts 105°
2026-04-23 07:03 22.91819 58.73027 34307 ft 448 kts 105°
2026-04-23 07:04 22.89968 58.79582 34423 ft 461 kts 105°
2026-04-23 07:04 22.88060 58.86322 34523 ft 475 kts 105°
2026-04-23 07:05 22.86093 58.93272 34632 ft 489 kts 105°
2026-04-23 07:05 22.84054 59.00447 34747 ft 506 kts 105°
2026-04-23 07:06 22.81949 59.07855 34877 ft 522 kts 105°
2026-04-23 07:06 22.80871 59.11636 34995 ft 527 kts 105°
2026-04-23 07:06 22.94245 58.64494 34042 ft 424 kts 105°
2026-04-23 07:07 22.93654 58.66597 32389 ft 444 kts 106°
2026-04-23 07:07 22.92689 58.70012 30780 ft 481 kts 107°
2026-04-23 07:07 22.91684 58.73407 30911 ft 464 kts 107°
2026-04-23 07:07 22.90449 58.77841 31014 ft 467 kts 105°
2026-04-23 07:08 22.88868 58.83521 31180 ft 478 kts 107°
2026-04-23 07:08 22.87867 58.86990 31304 ft 484 kts 106°
2026-04-23 07:08 22.86868 58.90500 31397 ft 492 kts 106°
2026-04-23 07:09 22.84842 58.97697 31552 ft 506 kts 106°
2026-04-23 07:09 22.82730 59.05095 31720 ft 521 kts 106°
2026-04-23 07:10 22.80568 59.12708 31919 ft 534 kts 106°
2026-04-23 07:10 22.78344 59.20488 32119 ft 546 kts 105°
2026-04-23 07:11 22.77216 59.24435 32225 ft 550 kts 106°
2026-04-23 07:11 22.76078 59.28424 32308 ft 556 kts 106°
2026-04-23 07:11 22.74928 59.32437 32409 ft 559 kts 105°
2026-04-23 07:12 22.72618 59.40484 32537 ft 561 kts 105°
2026-04-23 07:12 22.70302 59.48547 32707 ft 561 kts 105°
2026-04-23 07:13 22.67980 59.56604 32843 ft 561 kts 105°
2026-04-23 07:13 22.65669 59.64613 32980 ft 560 kts 105°
2026-04-23 07:14 22.63339 59.72670 33125 ft 561 kts 105°
2026-04-23 07:14 22.61005 59.80727 33274 ft 561 kts 105°
2026-04-23 07:15 22.58667 59.88791 33428 ft 561 kts 105°
2026-04-23 07:15 22.56326 59.96844 33571 ft 561 kts 105°
2026-04-23 07:16 22.53982 60.04893 33719 ft 561 kts 105°
2026-04-23 07:16 22.51632 60.12942 33868 ft 561 kts 105°
2026-04-23 07:17 22.49276 60.20999 34005 ft 560 kts 104°
2026-04-23 07:17 22.46922 60.29035 34139 ft 561 kts 105°
2026-04-23 07:18 22.44561 60.37072 34269 ft 561 kts 105°
2026-04-23 07:18 22.42200 60.45099 34418 ft 560 kts 105°
2026-04-23 07:19 22.39847 60.53075 34539 ft 555 kts 105°
2026-04-23 07:19 22.37512 60.60988 34675 ft 556 kts 105°
2026-04-23 07:20 22.35153 60.68952 34821 ft 557 kts 105°
2026-04-23 07:20 22.32790 60.76926 34956 ft 555 kts 106°
2026-04-23 07:21 22.30449 60.84798 35094 ft 551 kts 106°
2026-04-23 07:21 22.28105 60.92674 35219 ft 551 kts 106°
2026-04-23 07:22 22.25755 61.00549 35356 ft 552 kts 106°
2026-04-23 07:22 22.23405 61.08412 35495 ft 546 kts 107°
2026-04-23 07:23 22.21065 61.16224 35626 ft 548 kts 106°
2026-04-23 07:23 22.18732 61.23999 35765 ft 549 kts 106°
2026-04-23 07:24 22.16375 61.31837 35898 ft 549 kts 106°
2026-04-23 07:24 22.14022 61.39651 36046 ft 547 kts 107°
2026-04-23 07:25 22.11666 61.47460 36193 ft 548 kts 107°
2026-04-23 07:25 22.09298 61.55290 36323 ft 548 kts 107°
2026-04-23 07:26 22.06933 61.63095 36478 ft 548 kts 107°
2026-04-23 07:26 22.04577 61.70858 36613 ft 548 kts 107°
2026-04-23 07:27 22.02200 61.78675 36742 ft 548 kts 107°
2026-04-23 07:27 21.99821 61.86482 36887 ft 549 kts 107°
2026-04-23 07:28 21.97436 61.94296 37046 ft 547 kts 107°
2026-04-23 07:28 21.95053 62.02087 37194 ft 548 kts 107°
2026-04-23 07:29 21.92665 62.09881 37335 ft 548 kts 107°
2026-04-23 07:29 21.90288 62.17625 37481 ft 548 kts 107°
2026-04-23 07:30 21.87893 62.25412 37639 ft 549 kts 107°
2026-04-23 07:30 21.85491 62.33205 37771 ft 547 kts 107°
2026-04-23 07:31 21.82726 62.40835 37962 ft 549 kts 116°
2026-04-23 07:31 21.79060 62.48051 38127 ft 549 kts 117°
2026-04-23 07:32 21.75651 62.55412 38306 ft 549 kts 116°
2026-04-23 07:32 21.72118 62.62694 38457 ft 549 kts 117°
2026-04-23 07:33 21.68632 62.70003 38608 ft 549 kts 116°
2026-04-23 07:33 21.65135 62.77291 38722 ft 548 kts 117°
2026-04-23 07:34 21.61633 62.84563 38842 ft 547 kts 116°
2026-04-23 07:34 21.58167 62.91786 38973 ft 547 kts 117°
2026-04-23 07:35 21.54661 62.99044 39091 ft 547 kts 117°
2026-04-23 07:35 21.51161 63.06313 39225 ft 547 kts 117°
2026-04-23 07:36 21.47653 63.13562 39349 ft 547 kts 117°
2026-04-23 07:36 21.44149 63.20813 39466 ft 547 kts 117°
2026-04-23 07:37 21.40639 63.28053 39615 ft 547 kts 117°
2026-04-23 07:37 21.37132 63.35284 39729 ft 547 kts 117°
2026-04-23 07:38 21.33617 63.42518 39865 ft 546 kts 117°
2026-04-23 07:38 21.30103 63.49742 40003 ft 546 kts 117°
2026-04-23 07:39 21.26606 63.56920 40125 ft 547 kts 117°
2026-04-23 07:39 21.23082 63.64144 40268 ft 546 kts 117°
2026-04-23 07:40 21.19557 63.71360 40383 ft 546 kts 117°
2026-04-23 07:40 21.16038 63.78556 40513 ft 545 kts 117°
2026-04-23 07:41 21.12517 63.85744 40648 ft 545 kts 117°
2026-04-23 07:41 21.08990 63.92936 40778 ft 545 kts 117°
2026-04-23 07:42 21.05461 64.00123 40909 ft 545 kts 117°
2026-04-23 07:42 21.01931 64.07301 40907 ft 544 kts 117°
2026-04-23 07:43 20.98406 64.14460 40906 ft 544 kts 117°
2026-04-23 07:43 20.94871 64.21631 40902 ft 544 kts 117°
2026-04-23 07:44 20.91361 64.28741 40898 ft 543 kts 117°
2026-04-23 07:44 20.87829 64.35885 40902 ft 543 kts 117°
2026-04-23 07:45 20.84298 64.43020 40906 ft 543 kts 117°
2026-04-23 07:45 20.80763 64.50152 40904 ft 542 kts 117°
2026-04-23 07:46 20.77228 64.57276 40892 ft 543 kts 117°
2026-04-23 07:46 20.73688 64.64400 40900 ft 543 kts 117°
2026-04-23 07:47 20.70138 64.71533 40900 ft 543 kts 117°
2026-04-23 07:47 20.66611 64.78613 40903 ft 544 kts 117°
2026-04-23 07:48 20.63048 64.85755 40905 ft 544 kts 117°
2026-04-23 07:48 20.59486 64.92886 40907 ft 544 kts 117°
2026-04-23 07:49 20.55924 65.00011 40903 ft 544 kts 117°
2026-04-23 07:49 20.52437 65.07117 40893 ft 543 kts 116°
2026-04-23 07:50 20.48941 65.14264 40893 ft 543 kts 117°
2026-04-23 07:50 20.45424 65.21402 40893 ft 543 kts 117°
2026-04-23 07:51 20.41918 65.28551 40892 ft 543 kts 117°
2026-04-23 07:51 20.38404 65.35670 40894 ft 541 kts 117°
2026-04-23 07:52 20.34905 65.42777 40895 ft 542 kts 117°
2026-04-23 07:52 20.31395 65.49880 40895 ft 542 kts 117°
2026-04-23 07:53 20.27912 65.56931 40895 ft 541 kts 117°
2026-04-23 07:53 20.24400 65.64022 40898 ft 540 kts 117°
2026-04-23 07:54 20.20895 65.71098 40894 ft 540 kts 117°
2026-04-23 07:54 20.17387 65.78166 40894 ft 540 kts 117°
2026-04-23 07:55 20.13880 65.85225 40893 ft 540 kts 117°
2026-04-23 07:55 20.10366 65.92288 40893 ft 540 kts 117°
2026-04-23 07:56 20.06854 65.99340 40891 ft 538 kts 117°
2026-04-23 07:56 20.03341 66.06384 40891 ft 539 kts 117°
2026-04-23 07:57 20.00416 66.12243 40890 ft 540 kts 117°
2026-04-23 07:57 19.96891 66.19294 40892 ft 540 kts 117°
2026-04-23 07:58 19.93366 66.26338 40898 ft 539 kts 117°
2026-04-23 07:58 19.89850 66.33356 40891 ft 537 kts 117°
2026-04-23 07:59 19.86335 66.40362 40886 ft 537 kts 117°
2026-04-23 07:59 19.82841 66.47319 40873 ft 537 kts 117°
2026-04-23 08:00 19.79319 66.54322 40893 ft 539 kts 117°
2026-04-23 08:00 19.75790 66.61331 40881 ft 535 kts 117°
2026-04-23 08:01 19.72274 66.68305 40880 ft 536 kts 117°
2026-04-23 08:01 19.68756 66.75275 40878 ft 536 kts 117°
2026-04-23 08:02 19.65235 66.82242 40879 ft 536 kts 117°
2026-04-23 08:02 19.61709 66.89212 40881 ft 536 kts 117°
2026-04-23 08:03 19.58190 66.96158 40875 ft 534 kts 117°
2026-04-23 08:03 19.54669 67.03101 40874 ft 534 kts 117°
2026-04-23 08:04 19.51147 67.10037 40879 ft 535 kts 117°
2026-04-23 08:04 19.47612 67.16991 40888 ft 536 kts 117°
2026-04-23 08:05 19.44076 67.23939 40879 ft 534 kts 117°
2026-04-23 08:05 19.40574 67.30811 40875 ft 533 kts 117°
2026-04-23 08:06 19.37050 67.37718 40870 ft 533 kts 118°
2026-04-23 08:06 19.33521 67.44628 40861 ft 533 kts 118°
2026-04-23 08:07 19.29987 67.51539 40883 ft 533 kts 118°
2026-04-23 08:07 19.26453 67.58440 40873 ft 532 kts 118°
2026-04-23 08:08 19.22926 67.65322 40873 ft 532 kts 118°
2026-04-23 08:08 19.19423 67.72149 40873 ft 531 kts 118°
2026-04-23 08:09 19.15894 67.79019 40872 ft 531 kts 118°
2026-04-23 08:09 19.12362 67.85885 40872 ft 531 kts 118°
2026-04-23 08:10 19.08825 67.92754 40872 ft 531 kts 118°
2026-04-23 08:10 19.03646 68.03101 40885 ft 531 kts 116°
2026-04-23 08:11 19.00273 68.10049 40887 ft 531 kts 116°
2026-04-23 08:11 18.96962 68.17037 40887 ft 531 kts 116°
2026-04-23 08:12 18.93616 68.23997 40869 ft 530 kts 116°
2026-04-23 08:12 18.90293 68.30945 40869 ft 530 kts 116°
2026-04-23 08:13 18.86960 68.37889 40869 ft 530 kts 116°
2026-04-23 08:13 18.83623 68.44835 40869 ft 530 kts 116°
2026-04-23 08:14 18.80305 68.51738 40875 ft 530 kts 116°
2026-04-23 08:14 18.76962 68.58679 40882 ft 530 kts 116°
2026-04-23 08:15 18.73626 68.65603 40876 ft 530 kts 116°
2026-04-23 08:15 18.70280 68.72536 40879 ft 531 kts 116°
2026-04-23 08:16 18.66929 68.79474 40874 ft 531 kts 116°
2026-04-23 08:16 18.63571 68.86416 40880 ft 531 kts 116°
2026-04-23 08:17 18.60215 68.93347 40862 ft 530 kts 116°
2026-04-23 08:17 18.56863 69.00261 40864 ft 529 kts 116°
2026-04-23 08:18 18.53513 69.07165 40869 ft 529 kts 116°
2026-04-23 08:18 18.50155 69.14076 40867 ft 530 kts 116°
2026-04-23 08:19 18.46793 69.20988 40876 ft 530 kts 117°
2026-04-23 08:19 18.43431 69.27891 40877 ft 530 kts 117°
2026-04-23 08:20 18.40070 69.34784 40865 ft 529 kts 117°
2026-04-23 08:20 18.36702 69.41684 40872 ft 530 kts 117°
2026-04-23 08:21 18.33355 69.48534 40868 ft 529 kts 117°
2026-04-23 08:21 18.29989 69.55416 40856 ft 529 kts 117°
2026-04-23 08:22 18.26621 69.62293 40859 ft 529 kts 117°
2026-04-23 08:22 18.23245 69.69179 40859 ft 528 kts 117°
2026-04-23 08:23 18.19867 69.76061 40863 ft 529 kts 117°
2026-04-23 08:23 18.16484 69.82946 40865 ft 530 kts 117°
2026-04-23 08:24 18.13121 69.89782 40862 ft 529 kts 117°
2026-04-23 08:24 18.09737 69.96653 40859 ft 528 kts 117°
2026-04-23 08:25 18.06356 70.03512 40860 ft 529 kts 117°
2026-04-23 08:25 18.02966 70.10380 40852 ft 529 kts 118°
2026-04-23 08:26 17.99573 70.17247 40852 ft 529 kts 118°
2026-04-23 08:26 17.96204 70.24058 40851 ft 529 kts 118°
2026-04-23 08:27 17.92810 70.30912 40848 ft 528 kts 118°
2026-04-23 08:27 17.89420 70.37752 40848 ft 528 kts 118°
2026-04-23 08:28 17.86023 70.44595 40843 ft 528 kts 118°
2026-04-23 08:28 17.82624 70.51437 40844 ft 529 kts 118°
2026-04-23 08:29 17.79242 70.58287 40843 ft 529 kts 115°
2026-04-23 08:29 17.75975 70.65203 40851 ft 529 kts 118°
2026-04-23 08:30 17.72695 70.72130 40852 ft 529 kts 117°
2026-04-23 08:30 17.69459 70.79012 40851 ft 529 kts 117°
2026-04-23 08:31 17.66178 70.85915 40853 ft 529 kts 117°
2026-04-23 08:31 17.62914 70.92835 40846 ft 529 kts 118°
2026-04-23 08:32 17.59629 70.99745 40847 ft 530 kts 117°
2026-04-23 08:32 17.56351 71.06667 40847 ft 530 kts 117°
2026-04-23 08:33 17.53069 71.13564 40841 ft 528 kts 117°
2026-04-23 08:33 17.49797 71.20450 40833 ft 528 kts 118°
2026-04-23 08:34 17.46514 71.27343 40833 ft 528 kts 118°
2026-04-23 08:34 17.43236 71.34222 40831 ft 528 kts 118°
2026-04-23 08:35 17.39948 71.41112 40830 ft 528 kts 118°
2026-04-23 08:35 17.36661 71.47994 40832 ft 528 kts 118°
2026-04-23 08:36 17.33390 71.54834 40829 ft 528 kts 118°
2026-04-23 08:36 17.30077 71.61755 40826 ft 528 kts 118°
2026-04-23 08:37 17.26781 71.68633 40826 ft 529 kts 118°
2026-04-23 08:37 17.23500 71.75471 40816 ft 529 kts 118°
2026-04-23 08:38 17.20199 71.82344 40821 ft 529 kts 118°
2026-04-23 08:38 17.16892 71.89224 40815 ft 529 kts 118°
2026-04-23 08:39 17.13585 71.96095 40817 ft 529 kts 119°
2026-04-23 08:39 17.10272 72.02974 40817 ft 530 kts 119°
2026-04-23 08:40 17.06252 72.09341 40819 ft 523 kts 135°
2026-04-23 08:40 17.01214 72.14784 40823 ft 521 kts 138°
2026-04-23 08:41 16.96358 72.20437 40822 ft 524 kts 132°
2026-04-23 08:41 16.91610 72.26202 40811 ft 522 kts 136°
2026-04-23 08:42 16.86762 72.31817 40815 ft 520 kts 134°
2026-04-23 08:42 16.82010 72.37525 40816 ft 520 kts 135°
2026-04-23 08:43 16.77194 72.43151 40816 ft 520 kts 135°
2026-04-23 08:43 16.73226 72.47875 40813 ft 520 kts 135°
2026-04-23 08:44 16.67638 72.54440 40812 ft 521 kts 135°
2026-04-23 08:44 16.62840 72.60109 40810 ft 520 kts 135°
2026-04-23 08:45 16.58855 72.64794 40817 ft 519 kts 135°
2026-04-23 08:45 16.54064 72.70431 40800 ft 519 kts 135°
2026-04-23 08:46 16.49276 72.76062 40800 ft 519 kts 135°
2026-04-23 08:46 16.44488 72.81685 40794 ft 518 kts 135°
2026-04-23 08:47 16.39703 72.87301 40792 ft 519 kts 135°
2026-04-23 08:47 16.34916 72.92914 40792 ft 518 kts 135°
2026-04-23 08:48 16.30132 72.98521 40796 ft 518 kts 136°
2026-04-23 08:48 16.25339 73.04133 40801 ft 518 kts 136°
2026-04-23 08:49 16.20544 73.09743 40809 ft 519 kts 136°
2026-04-23 08:49 16.15747 73.15351 40811 ft 519 kts 136°
2026-04-23 08:50 16.10973 73.20927 40807 ft 519 kts 136°
2026-04-23 08:50 16.06170 73.26532 40807 ft 519 kts 136°
2026-04-23 08:51 16.01373 73.32129 40795 ft 515 kts 136°
2026-04-23 08:51 15.96608 73.37680 40792 ft 515 kts 136°
2026-04-23 08:52 15.91834 73.43239 40792 ft 516 kts 136°
2026-04-23 08:52 15.87054 73.48801 40794 ft 516 kts 136°
2026-04-23 08:53 15.82276 73.54356 40796 ft 516 kts 136°
2026-04-23 08:53 15.77494 73.59912 40793 ft 515 kts 136°
2026-04-23 08:54 15.72712 73.65463 40782 ft 515 kts 137°
2026-04-23 08:54 15.67950 73.70987 40784 ft 514 kts 137°
2026-04-23 08:55 15.63214 73.76476 40779 ft 513 kts 137°
2026-04-23 08:55 15.58446 73.81999 40783 ft 514 kts 137°
2026-04-23 08:56 15.53673 73.87522 40784 ft 514 kts 137°
2026-04-23 08:56 15.48894 73.93049 40785 ft 515 kts 137°
2026-04-23 08:57 15.44105 73.98583 40790 ft 516 kts 137°
2026-04-23 08:57 15.39334 74.04096 40790 ft 510 kts 137°
2026-04-23 08:58 15.34584 74.09572 40825 ft 511 kts 137°
2026-04-23 08:58 15.29832 74.15054 40818 ft 511 kts 137°
2026-04-23 08:59 15.25108 74.20496 40820 ft 511 kts 137°
2026-04-23 08:59 15.20352 74.25972 40814 ft 511 kts 137°
2026-04-23 09:00 15.15593 74.31448 40811 ft 511 kts 137°
2026-04-23 09:00 15.10829 74.36925 40808 ft 512 kts 138°
2026-04-23 09:01 15.06063 74.42400 40810 ft 512 kts 137°
2026-04-23 09:01 15.01299 74.47869 40814 ft 512 kts 137°
2026-04-23 09:02 14.96530 74.53340 40818 ft 512 kts 137°
2026-04-23 09:02 14.91761 74.58807 40825 ft 512 kts 137°
2026-04-23 09:03 14.86992 74.64270 40822 ft 511 kts 137°
2026-04-23 09:03 14.82225 74.69728 40844 ft 511 kts 137°
2026-04-23 09:04 14.77453 74.75187 40838 ft 512 kts 137°
2026-04-23 09:04 14.72681 74.80641 40841 ft 511 kts 137°
2026-04-23 09:05 14.67940 74.86057 40854 ft 512 kts 137°
2026-04-23 09:05 14.63170 74.91502 40848 ft 512 kts 137°
2026-04-23 09:06 14.58388 74.96957 40860 ft 512 kts 137°
2026-04-23 09:06 14.53612 75.02402 40855 ft 512 kts 137°
2026-04-23 09:07 14.48833 75.07845 40848 ft 512 kts 137°
2026-04-23 09:07 14.44046 75.13295 40847 ft 512 kts 137°
2026-04-23 09:08 14.39257 75.18741 40846 ft 512 kts 137°
2026-04-23 09:08 14.34472 75.24182 40839 ft 512 kts 137°
2026-04-23 09:09 14.29678 75.29627 40847 ft 512 kts 137°
2026-04-23 09:09 14.24893 75.35059 40845 ft 512 kts 137°
2026-04-23 09:10 14.17736 75.43176 40851 ft 513 kts 137°
2026-04-23 09:11 14.12941 75.48612 40845 ft 512 kts 137°
2026-04-23 09:11 14.08257 75.54081 40859 ft 511 kts 129°
2026-04-23 09:12 14.04729 75.60529 40848 ft 521 kts 120°
2026-04-23 09:12 14.01543 75.67228 40861 ft 519 kts 124°
2026-04-23 09:13 13.97968 75.73672 40854 ft 519 kts 123°
2026-04-23 09:13 13.94631 75.80272 40859 ft 519 kts 123°
2026-04-23 09:14 13.91155 75.86763 40852 ft 518 kts 123°
2026-04-23 09:14 13.87759 75.93304 40861 ft 518 kts 123°
2026-04-23 09:15 13.84319 75.99818 40863 ft 518 kts 124°
2026-04-23 09:15 13.80889 76.06353 40841 ft 519 kts 123°
2026-04-23 09:16 13.77449 76.12888 40861 ft 520 kts 123°
2026-04-23 09:16 13.74018 76.19404 40853 ft 517 kts 123°
2026-04-23 09:17 13.70699 76.25699 40856 ft 517 kts 123°
2026-04-23 09:17 13.67272 76.32196 40853 ft 517 kts 123°
2026-04-23 09:18 13.63844 76.38691 40854 ft 516 kts 123°
2026-04-23 09:18 13.60419 76.45173 40854 ft 516 kts 123°
2026-04-23 09:19 13.56988 76.51663 40857 ft 517 kts 123°
2026-04-23 09:19 13.53577 76.58110 40858 ft 517 kts 123°
2026-04-23 09:20 13.50138 76.64605 40856 ft 517 kts 123°
2026-04-23 09:20 13.46702 76.71088 40864 ft 517 kts 123°
2026-04-23 09:21 13.43265 76.77568 40864 ft 516 kts 123°
2026-04-23 09:21 13.39832 76.84037 40870 ft 516 kts 123°
2026-04-23 09:22 13.36399 76.90501 40868 ft 515 kts 123°
2026-04-23 09:22 13.32967 76.96955 40878 ft 515 kts 123°
2026-04-23 09:23 13.29536 77.03406 40885 ft 515 kts 123°
2026-04-23 09:23 13.26164 77.09739 40889 ft 514 kts 123°
2026-04-23 09:24 13.22735 77.16176 40887 ft 514 kts 123°
2026-04-23 09:24 13.19300 77.22619 40890 ft 514 kts 123°
2026-04-23 09:25 13.16365 77.28120 40902 ft 511 kts 123°
2026-04-23 09:25 13.12942 77.34530 40904 ft 512 kts 123°
2026-04-23 09:26 13.09521 77.40935 40924 ft 512 kts 123°
2026-04-23 09:26 13.06096 77.47339 40929 ft 512 kts 123°
2026-04-23 09:27 13.02694 77.53697 40937 ft 512 kts 123°
2026-04-23 09:27 12.99271 77.60090 40934 ft 512 kts 123°
2026-04-23 09:28 12.95845 77.66482 40938 ft 512 kts 123°
2026-04-23 09:28 12.92741 77.73085 40934 ft 515 kts 119°
2026-04-23 09:29 12.89778 77.79769 40936 ft 515 kts 120°
2026-04-23 09:29 12.86785 77.86435 40918 ft 515 kts 119°
2026-04-23 09:30 12.83812 77.93106 40911 ft 513 kts 119°
2026-04-23 09:30 12.80829 77.99757 40899 ft 514 kts 119°
2026-04-23 09:31 12.77851 78.06414 40883 ft 514 kts 119°
2026-04-23 09:31 12.74866 78.13069 40870 ft 514 kts 119°
2026-04-23 09:32 12.71881 78.19725 40876 ft 515 kts 119°
2026-04-23 09:32 12.68888 78.26393 40864 ft 515 kts 119°
2026-04-23 09:33 12.65895 78.33056 40864 ft 515 kts 119°
2026-04-23 09:33 12.63409 78.38586 40840 ft 514 kts 119°
2026-04-23 09:34 12.60418 78.45230 40832 ft 514 kts 119°
2026-04-23 09:34 12.56938 78.52960 40832 ft 514 kts 119°
2026-04-23 09:35 12.54427 78.58531 40833 ft 515 kts 119°
2026-04-23 09:35 12.51430 78.65177 40809 ft 514 kts 119°
2026-04-23 09:36 12.48431 78.71822 40800 ft 515 kts 119°
2026-04-23 09:36 12.45423 78.78479 40803 ft 515 kts 119°
2026-04-23 09:37 12.42439 78.85083 40794 ft 515 kts 119°
2026-04-23 09:37 12.39431 78.91729 40790 ft 515 kts 119°
2026-04-23 09:38 12.36419 78.98386 40796 ft 515 kts 119°
2026-04-23 09:38 12.33407 79.05032 40789 ft 515 kts 119°
2026-04-23 09:39 12.30393 79.11680 40785 ft 515 kts 119°
2026-04-23 09:39 12.27381 79.18317 40780 ft 515 kts 119°
2026-04-23 09:40 12.24364 79.24960 40777 ft 515 kts 119°
2026-04-23 09:40 12.21351 79.31590 40771 ft 515 kts 119°
2026-04-23 09:41 12.18337 79.38218 40773 ft 514 kts 119°
2026-04-23 09:41 12.15322 79.44841 40772 ft 514 kts 119°
2026-04-23 09:42 12.12306 79.51463 40772 ft 514 kts 119°
2026-04-23 09:42 12.09288 79.58084 40779 ft 514 kts 119°
2026-04-23 09:43 12.06374 79.64776 40789 ft 515 kts 118°
2026-04-23 09:43 12.03421 79.71448 40808 ft 517 kts 117°
2026-04-23 09:44 12.00536 79.78167 40811 ft 515 kts 118°
2026-04-23 09:44 11.97608 79.84838 40804 ft 514 kts 118°
2026-04-23 09:45 11.94728 79.91482 40794 ft 515 kts 118°
2026-04-23 09:45 11.91803 79.98175 40799 ft 516 kts 118°
2026-04-23 09:46 11.88885 80.04872 40804 ft 516 kts 118°
2026-04-23 09:46 11.85969 80.11547 40797 ft 514 kts 118°
2026-04-23 09:47 11.83035 80.18200 40788 ft 514 kts 118°
2026-04-23 09:47 11.80098 80.24845 40786 ft 513 kts 118°
2026-04-23 09:48 11.77165 80.31488 40792 ft 514 kts 118°
2026-04-23 09:48 11.74218 80.38145 40798 ft 515 kts 118°
2026-04-23 09:49 11.71272 80.44809 40804 ft 514 kts 118°
2026-04-23 09:49 11.68328 80.51451 40799 ft 513 kts 118°
2026-04-23 09:50 11.65387 80.58088 40795 ft 513 kts 118°
2026-04-23 09:50 11.62447 80.64715 40796 ft 513 kts 118°
2026-04-23 09:51 11.59506 80.71343 40794 ft 513 kts 118°
2026-04-23 09:51 11.56583 80.77923 40794 ft 513 kts 118°
2026-04-23 09:52 11.53638 80.84548 40794 ft 513 kts 118°
2026-04-23 09:52 11.50696 80.91163 40793 ft 512 kts 118°
2026-04-23 09:53 11.47749 80.97782 40794 ft 513 kts 118°
2026-04-23 09:53 11.44802 81.04398 40795 ft 513 kts 118°
2026-04-23 09:54 11.41855 81.11008 40797 ft 512 kts 118°
2026-04-23 09:54 11.38907 81.17616 40796 ft 512 kts 118°
2026-04-23 09:55 11.35955 81.24229 40798 ft 513 kts 118°
2026-04-23 09:55 11.32997 81.30852 40802 ft 515 kts 118°
2026-04-23 09:56 11.30030 81.37490 40806 ft 514 kts 118°
2026-04-23 09:56 11.27065 81.44116 40807 ft 514 kts 118°
2026-04-23 09:57 11.24097 81.50747 40810 ft 514 kts 118°
2026-04-23 09:57 11.21127 81.57377 40812 ft 514 kts 118°
2026-04-23 09:58 11.18162 81.63990 40798 ft 512 kts 118°
2026-04-23 09:58 11.15205 81.70581 40795 ft 511 kts 118°
2026-04-23 09:59 11.12248 81.77169 40796 ft 512 kts 118°
2026-04-23 09:59 11.09281 81.83773 40802 ft 513 kts 118°
2026-04-23 10:00 11.06312 81.90378 40804 ft 512 kts 118°
2026-04-23 10:00 11.03347 81.96969 40798 ft 511 kts 118°
2026-04-23 10:01 11.00382 82.03554 40798 ft 512 kts 118°
2026-04-23 10:01 10.97416 82.10141 40798 ft 512 kts 118°
2026-04-23 10:02 10.94446 82.16729 40799 ft 512 kts 118°
2026-04-23 10:02 10.91494 82.23273 40803 ft 512 kts 118°
2026-04-23 10:03 10.88521 82.29860 40800 ft 512 kts 118°
2026-04-23 10:03 10.85544 82.36451 40800 ft 513 kts 118°
2026-04-23 10:04 10.82568 82.43035 40795 ft 512 kts 118°
2026-04-23 10:04 10.79588 82.49624 40800 ft 513 kts 118°
2026-04-23 10:05 10.76604 82.56217 40801 ft 513 kts 118°
2026-04-23 10:05 10.73619 82.62809 40804 ft 513 kts 118°
2026-04-23 10:06 10.70631 82.69403 40804 ft 514 kts 118°
2026-04-23 10:06 10.67641 82.75997 40802 ft 512 kts 118°
2026-04-23 10:07 10.64657 82.82571 40798 ft 513 kts 118°
2026-04-23 10:07 10.61670 82.89159 40801 ft 513 kts 118°
2026-04-23 10:08 10.58698 82.95756 40801 ft 513 kts 118°
2026-04-23 10:08 10.55712 83.02351 40803 ft 514 kts 118°
2026-04-23 10:09 10.51239 83.12242 40801 ft 514 kts 118°
2026-04-23 10:09 10.48276 83.18785 40796 ft 510 kts 117°
2026-04-23 10:10 10.45306 83.25341 40797 ft 511 kts 118°
2026-04-23 10:10 10.42331 83.31901 40796 ft 511 kts 118°
2026-04-23 10:11 10.39358 83.38455 40793 ft 511 kts 118°
2026-04-23 10:11 10.36386 83.45001 40791 ft 510 kts 118°
2026-04-23 10:12 10.33410 83.51552 40796 ft 511 kts 118°
2026-04-23 10:12 10.30431 83.58107 40793 ft 511 kts 117°
2026-04-23 10:13 10.27450 83.64661 40798 ft 511 kts 118°
2026-04-23 10:13 10.24468 83.71213 40799 ft 511 kts 118°
2026-04-23 10:14 10.21483 83.77768 40797 ft 511 kts 118°
2026-04-23 10:14 10.18498 83.84318 40796 ft 511 kts 118°
2026-04-23 10:15 10.15514 83.90864 40795 ft 511 kts 118°
2026-04-23 10:15 10.12525 83.97414 40802 ft 512 kts 117°
2026-04-23 10:16 10.09529 84.03977 40808 ft 513 kts 117°
2026-04-23 10:16 10.06529 84.10543 40808 ft 513 kts 117°
2026-04-23 10:17 10.03526 84.17113 40807 ft 513 kts 117°
2026-04-23 10:17 10.00524 84.23679 40807 ft 512 kts 117°
2026-04-23 10:18 9.97525 84.30230 40793 ft 512 kts 117°
2026-04-23 10:18 9.94524 84.36784 40794 ft 512 kts 117°
2026-04-23 10:19 9.91520 84.43341 40799 ft 513 kts 117°
2026-04-23 10:19 9.88513 84.49897 40801 ft 513 kts 117°
2026-04-23 10:20 9.85529 84.56403 40797 ft 512 kts 117°
2026-04-23 10:20 9.82523 84.62950 40796 ft 512 kts 117°
2026-04-23 10:21 9.79515 84.69500 40799 ft 513 kts 117°
2026-04-23 10:21 9.76496 84.76069 40808 ft 514 kts 117°
2026-04-23 10:22 9.73476 84.82635 40807 ft 513 kts 117°
2026-04-23 10:22 9.70465 84.89180 40802 ft 512 kts 117°
2026-04-23 10:23 9.67451 84.95724 40804 ft 513 kts 117°
2026-04-23 10:23 9.64430 85.02283 40808 ft 514 kts 117°
2026-04-23 10:24 9.61913 85.07743 40807 ft 514 kts 117°
2026-04-23 10:24 9.58888 85.14303 40806 ft 513 kts 117°
2026-04-23 10:25 9.55866 85.20851 40807 ft 513 kts 117°
2026-04-23 10:25 9.52843 85.27400 40805 ft 513 kts 117°
2026-04-23 10:26 9.49819 85.33944 40804 ft 513 kts 117°
2026-04-23 10:26 9.46796 85.40484 40803 ft 513 kts 117°
2026-04-23 10:27 9.43774 85.47017 40801 ft 511 kts 117°
2026-04-23 10:27 9.40759 85.53532 40799 ft 511 kts 117°
2026-04-23 10:28 9.37740 85.60052 40805 ft 512 kts 117°
2026-04-23 10:28 9.34713 85.66586 40809 ft 513 kts 117°
2026-04-23 10:29 9.31684 85.73119 40807 ft 512 kts 117°
2026-04-23 10:29 9.28664 85.79631 40803 ft 511 kts 117°
2026-04-23 10:30 9.25660 85.86102 40805 ft 512 kts 117°
2026-04-23 10:30 9.22681 85.92710 40811 ft 513 kts 115°
2026-04-23 10:31 9.19803 85.99264 40817 ft 513 kts 116°
2026-04-23 10:31 9.16852 86.05832 40817 ft 513 kts 116°
2026-04-23 10:32 9.13939 86.12419 40807 ft 513 kts 116°
2026-04-23 10:32 9.11001 86.18985 40798 ft 512 kts 116°
2026-04-23 10:33 9.08076 86.25562 40799 ft 513 kts 116°
2026-04-23 10:33 9.05139 86.32138 40796 ft 512 kts 116°
2026-04-23 10:34 9.02214 86.38697 40801 ft 511 kts 116°
2026-04-23 10:34 8.99284 86.45255 40799 ft 512 kts 116°
2026-04-23 10:35 8.96355 86.51812 40798 ft 512 kts 116°
2026-04-23 10:35 8.93421 86.58376 40801 ft 512 kts 116°
2026-04-23 10:36 8.90492 86.64925 40800 ft 511 kts 116°
2026-04-23 10:36 8.87561 86.71474 40799 ft 511 kts 116°
2026-04-23 10:37 8.84649 86.77977 40801 ft 511 kts 116°
2026-04-23 10:37 8.81715 86.84526 40802 ft 511 kts 116°
2026-04-23 10:38 8.78779 86.91076 40801 ft 511 kts 116°
2026-04-23 10:38 8.75843 86.97622 40804 ft 511 kts 115°
2026-04-23 10:39 8.72910 87.04159 40806 ft 510 kts 115°
2026-04-23 10:39 8.69976 87.10692 40818 ft 510 kts 115°
2026-04-23 10:40 8.67047 87.17214 40799 ft 509 kts 115°
2026-04-23 10:40 8.64113 87.23740 40801 ft 510 kts 115°
2026-04-23 10:41 8.61175 87.30274 40824 ft 511 kts 115°
2026-04-23 10:41 8.58242 87.36792 40805 ft 507 kts 115°
2026-04-23 10:42 8.55319 87.43285 40798 ft 508 kts 115°
2026-04-23 10:42 8.52394 87.49778 40800 ft 507 kts 115°
2026-04-23 10:43 8.49470 87.56267 40806 ft 508 kts 115°
2026-04-23 10:43 8.46543 87.62760 40807 ft 508 kts 115°
2026-04-23 10:44 8.43614 87.69251 40803 ft 508 kts 115°
2026-04-23 10:44 8.40710 87.75686 40804 ft 506 kts 115°
2026-04-23 10:45 8.37790 87.82152 40822 ft 507 kts 115°
2026-04-23 10:45 8.34858 87.88641 40825 ft 508 kts 115°
2026-04-23 10:46 8.31931 87.95117 40803 ft 505 kts 115°
2026-04-23 10:46 8.29013 88.01568 40800 ft 505 kts 115°
2026-04-23 10:47 8.26096 88.08015 40801 ft 505 kts 115°
2026-04-23 10:47 8.23179 88.14459 40798 ft 504 kts 115°
2026-04-23 10:48 8.20260 88.20901 40821 ft 505 kts 115°
2026-04-23 10:48 8.17335 88.27356 40819 ft 506 kts 115°
2026-04-23 10:49 8.14408 88.33812 40805 ft 506 kts 115°
2026-04-23 10:49 8.11482 88.40263 40806 ft 505 kts 115°
2026-04-23 10:50 8.08557 88.46707 40800 ft 505 kts 115°
2026-04-23 10:50 8.05627 88.53159 40803 ft 505 kts 115°
2026-04-23 10:51 8.02701 88.59601 40807 ft 505 kts 115°
2026-04-23 10:51 7.99768 88.66054 40822 ft 506 kts 115°
2026-04-23 10:52 7.96837 88.72499 40807 ft 506 kts 115°
2026-04-23 10:52 7.93902 88.78949 40807 ft 506 kts 115°
2026-04-23 10:53 7.90969 88.85394 40809 ft 505 kts 115°
2026-04-23 10:53 7.88038 88.91831 40802 ft 504 kts 114°
2026-04-23 10:54 7.85113 88.98250 40807 ft 504 kts 114°
2026-04-23 10:54 7.82183 89.04678 40805 ft 504 kts 114°
2026-04-23 10:55 7.79253 89.11103 40805 ft 504 kts 114°
2026-04-23 10:55 7.76345 89.17477 40804 ft 504 kts 114°
2026-04-23 10:56 7.73417 89.23890 40804 ft 503 kts 114°
2026-04-23 10:56 7.70491 89.30299 40805 ft 503 kts 114°
2026-04-23 10:57 7.67583 89.36717 40804 ft 503 kts 114°
2026-04-23 10:57 7.64746 89.43160 40807 ft 503 kts 114°
2026-04-23 10:58 7.61862 89.49584 40808 ft 503 kts 114°
2026-04-23 10:58 7.59006 89.56017 40803 ft 502 kts 114°
2026-04-23 10:59 7.56138 89.62430 40804 ft 502 kts 114°
2026-04-23 10:59 7.53275 89.68851 40803 ft 502 kts 114°
2026-04-23 11:00 7.50410 89.75264 40822 ft 502 kts 114°
2026-04-23 11:00 7.47542 89.81684 40824 ft 502 kts 114°
2026-04-23 11:01 7.44675 89.88100 40806 ft 502 kts 114°
2026-04-23 11:01 7.41827 89.94469 40805 ft 502 kts 114°
2026-04-23 11:02 7.38965 90.00867 40822 ft 501 kts 114°
2026-04-23 11:02 7.36097 90.07276 40826 ft 501 kts 114°
2026-04-23 11:03 7.33232 90.13673 40809 ft 501 kts 114°
2026-04-23 11:03 7.30368 90.20068 40822 ft 501 kts 114°
2026-04-23 11:04 7.27501 90.26465 40812 ft 501 kts 114°
2026-04-23 11:04 7.24630 90.32868 40820 ft 502 kts 114°
2026-04-23 11:05 7.21759 90.39270 40826 ft 501 kts 114°
2026-04-23 11:05 7.18895 90.45653 40808 ft 500 kts 114°
2026-04-23 11:06 7.14596 90.55227 40806 ft 500 kts 114°
2026-04-23 11:07 7.11728 90.61612 40808 ft 501 kts 114°
2026-04-23 11:07 7.08857 90.68000 40816 ft 500 kts 114°
2026-04-23 11:08 7.05987 90.74384 40814 ft 500 kts 114°
2026-04-23 11:08 7.03116 90.80767 40810 ft 501 kts 114°
2026-04-23 11:09 7.00257 90.87122 40816 ft 502 kts 114°
2026-04-23 11:09 6.97378 90.93516 40818 ft 501 kts 114°
2026-04-23 11:10 6.94502 90.99902 40822 ft 501 kts 114°
2026-04-23 11:10 6.91629 91.06279 40805 ft 500 kts 114°
2026-04-23 11:11 6.88755 91.12656 40801 ft 500 kts 114°
2026-04-23 11:11 6.85881 91.19028 40807 ft 500 kts 113°
2026-04-23 11:12 6.83007 91.25399 40810 ft 501 kts 114°
2026-04-23 11:12 6.80126 91.31782 40811 ft 501 kts 114°
2026-04-23 11:13 6.77246 91.38163 40808 ft 501 kts 114°
2026-04-23 11:13 6.74362 91.44546 40811 ft 501 kts 114°
2026-04-23 11:14 6.71478 91.50930 40808 ft 501 kts 114°
2026-04-23 11:14 6.69082 91.56231 40820 ft 501 kts 113°
2026-04-23 11:15 6.66197 91.62611 40823 ft 501 kts 114°
2026-04-23 11:15 6.63315 91.68982 40823 ft 501 kts 114°
2026-04-23 11:16 6.60429 91.75360 40830 ft 501 kts 114°
2026-04-23 11:16 6.57540 91.81740 40828 ft 501 kts 114°
2026-04-23 11:17 6.54651 91.88120 40821 ft 501 kts 114°
2026-04-23 11:17 6.51767 91.94485 40815 ft 499 kts 114°
2026-04-23 11:18 6.48887 92.00839 40818 ft 499 kts 114°
2026-04-23 11:18 6.46005 92.07194 40824 ft 500 kts 114°
2026-04-23 11:19 6.43137 92.13516 40805 ft 500 kts 114°
2026-04-23 11:19 6.40233 92.19917 40807 ft 501 kts 114°
2026-04-23 11:20 6.37357 92.26250 40810 ft 501 kts 114°
2026-04-23 11:20 6.34468 92.32612 40803 ft 498 kts 114°
2026-04-23 11:21 6.31594 92.38940 40808 ft 497 kts 114°
2026-04-23 11:21 6.28716 92.45270 40813 ft 497 kts 114°
2026-04-23 11:22 6.25844 92.51589 40809 ft 498 kts 114°
2026-04-23 11:22 6.22965 92.57918 40810 ft 497 kts 114°
2026-04-23 11:23 6.20089 92.64240 40826 ft 498 kts 114°
2026-04-23 11:23 6.17215 92.70554 40808 ft 494 kts 114°
2026-04-23 11:24 6.14356 92.76833 40810 ft 493 kts 114°
2026-04-23 11:24 6.11505 92.83093 40828 ft 493 kts 114°
2026-04-23 11:25 6.08653 92.89351 40811 ft 492 kts 114°
2026-04-23 11:25 6.05833 92.95538 40809 ft 494 kts 114°
2026-04-23 11:26 6.02971 93.01814 40813 ft 494 kts 114°
2026-04-23 11:26 6.00128 93.08048 40815 ft 495 kts 114°
2026-04-23 11:27 5.97320 93.14328 40813 ft 492 kts 114°
2026-04-23 11:27 5.94532 93.20607 40816 ft 492 kts 114°
2026-04-23 11:28 5.91729 93.26870 40814 ft 492 kts 114°
2026-04-23 11:28 5.88935 93.33146 40814 ft 492 kts 114°
2026-04-23 11:29 5.86130 93.39422 40817 ft 492 kts 114°
2026-04-23 11:29 5.83331 93.45696 40828 ft 491 kts 114°
2026-04-23 11:30 5.80551 93.51916 40812 ft 492 kts 114°
2026-04-23 11:30 5.77750 93.58188 40807 ft 491 kts 114°
2026-04-23 11:31 5.74949 93.64455 40831 ft 493 kts 114°
2026-04-23 11:31 5.72147 93.70721 40828 ft 492 kts 114°
2026-04-23 11:32 5.69343 93.76990 40804 ft 492 kts 114°
2026-04-23 11:32 5.66537 93.83262 40812 ft 494 kts 114°
2026-04-23 11:33 5.63714 93.89569 40818 ft 496 kts 114°
2026-04-23 11:33 5.60906 93.95841 40810 ft 496 kts 114°
2026-04-23 11:34 5.58073 94.02165 40825 ft 496 kts 114°
2026-04-23 11:34 5.55240 94.08490 40811 ft 498 kts 114°
2026-04-23 11:35 5.52405 94.14815 40806 ft 497 kts 114°
2026-04-23 11:35 5.49567 94.21145 40831 ft 497 kts 114°
2026-04-23 11:36 5.46729 94.27474 40823 ft 498 kts 114°
2026-04-23 11:36 5.43884 94.33816 40828 ft 498 kts 114°
2026-04-23 11:37 5.41041 94.40153 40826 ft 498 kts 114°
2026-04-23 11:37 5.38193 94.46495 40825 ft 498 kts 114°
2026-04-23 11:38 5.35350 94.52827 40825 ft 499 kts 114°
2026-04-23 11:38 5.32499 94.59174 40822 ft 498 kts 114°
2026-04-23 11:39 5.29652 94.65510 40819 ft 499 kts 114°
2026-04-23 11:39 5.26800 94.71854 40814 ft 500 kts 114°
2026-04-23 11:40 5.23939 94.78218 40824 ft 500 kts 114°
2026-04-23 11:40 5.21097 94.84538 40826 ft 500 kts 114°
2026-04-23 11:41 5.18215 94.90943 40830 ft 500 kts 114°
2026-04-23 11:41 5.15371 94.97262 40811 ft 499 kts 114°
2026-04-23 11:42 5.12518 95.03599 40810 ft 499 kts 114°
2026-04-23 11:42 5.09664 95.09938 40813 ft 499 kts 114°
2026-04-23 11:43 5.06809 95.16274 40817 ft 499 kts 114°
2026-04-23 11:43 5.03951 95.22619 40832 ft 499 kts 114°
2026-04-23 11:44 5.01088 95.28970 40831 ft 500 kts 114°
2026-04-23 11:44 4.98223 95.35324 40839 ft 499 kts 114°
2026-04-23 11:45 4.95369 95.41652 40823 ft 497 kts 114°
2026-04-23 11:45 4.92577 95.47839 40840 ft 497 kts 114°
2026-04-23 11:46 4.89718 95.54177 40848 ft 500 kts 114°
2026-04-23 11:46 4.86848 95.60534 40851 ft 501 kts 114°
2026-04-23 11:47 4.83974 95.66901 40832 ft 501 kts 114°
2026-04-23 11:47 4.81104 95.73254 40829 ft 499 kts 114°
2026-04-23 11:48 4.78236 95.79601 40861 ft 500 kts 114°
2026-04-23 11:48 4.75368 95.85947 40850 ft 500 kts 114°
2026-04-23 11:49 4.72499 95.92293 40864 ft 500 kts 114°
2026-04-23 11:49 4.69630 95.98639 40860 ft 500 kts 114°
2026-04-23 11:50 4.66757 96.04990 40864 ft 500 kts 114°
2026-04-23 11:50 4.63886 96.11336 40874 ft 501 kts 114°
2026-04-23 11:51 4.61009 96.17695 40874 ft 501 kts 114°
2026-04-23 11:51 4.58127 96.24060 40898 ft 502 kts 114°
2026-04-23 11:52 4.55245 96.30424 40886 ft 502 kts 114°
2026-04-23 11:52 4.52378 96.36755 40870 ft 502 kts 114°
2026-04-23 11:53 4.49488 96.43132 40896 ft 502 kts 114°
2026-04-23 11:53 4.46599 96.49508 40892 ft 502 kts 115°
2026-04-23 11:54 4.43708 96.55883 40919 ft 503 kts 114°
2026-04-23 11:54 4.40819 96.62258 40911 ft 502 kts 115°
2026-04-23 11:55 4.37927 96.68632 40906 ft 502 kts 114°
2026-04-23 11:55 4.35038 96.75001 40928 ft 502 kts 114°
2026-04-23 11:56 4.32147 96.81372 40923 ft 502 kts 115°
2026-04-23 11:56 4.29251 96.87750 40935 ft 504 kts 115°
2026-04-23 11:57 4.26352 96.94138 40936 ft 504 kts 115°
2026-04-23 11:57 4.23447 97.00533 40945 ft 504 kts 114°
2026-04-23 11:58 4.20542 97.06930 40947 ft 504 kts 115°
2026-04-23 11:58 4.17637 97.13321 40944 ft 504 kts 114°
2026-04-23 11:59 4.14732 97.19715 40947 ft 504 kts 115°
2026-04-23 11:59 4.11825 97.26109 40952 ft 504 kts 115°
2026-04-23 12:00 4.08916 97.32505 40943 ft 505 kts 115°
2026-04-23 12:00 4.06008 97.38900 40956 ft 505 kts 115°
2026-04-23 12:01 4.03096 97.45300 40952 ft 505 kts 115°
2026-04-23 12:01 4.00187 97.51694 40957 ft 505 kts 114°
2026-04-23 12:02 3.97275 97.58091 40960 ft 505 kts 115°
2026-04-23 12:02 3.94370 97.64473 40935 ft 503 kts 115°
2026-04-23 12:03 3.91491 97.70795 40932 ft 503 kts 115°
2026-04-23 12:03 3.88590 97.77164 40902 ft 503 kts 115°
2026-04-23 12:04 3.85689 97.83531 40898 ft 503 kts 115°
2026-04-23 12:04 3.82787 97.89899 40874 ft 502 kts 115°
2026-04-23 12:05 3.80356 97.95232 40878 ft 503 kts 115°
2026-04-23 12:05 3.77456 98.01594 40888 ft 501 kts 114°
2026-04-23 12:06 3.74559 98.07946 40856 ft 502 kts 114°
2026-04-23 12:06 3.70215 98.17470 40859 ft 502 kts 114°
2026-04-23 12:07 3.67315 98.23828 40824 ft 501 kts 114°
2026-04-23 12:07 3.64417 98.30177 40827 ft 502 kts 114°
2026-04-23 12:08 3.61538 98.36486 40823 ft 499 kts 115°
2026-04-23 12:08 3.58661 98.42786 40817 ft 498 kts 115°
2026-04-23 12:09 3.55792 98.49069 40813 ft 496 kts 115°
2026-04-23 12:09 3.52920 98.55356 40791 ft 496 kts 115°
2026-04-23 12:10 3.49979 98.61595 40816 ft 495 kts 120°
2026-04-23 12:10 3.46422 98.67514 40829 ft 496 kts 122°
2026-04-23 12:11 3.42891 98.73435 40821 ft 495 kts 120°
2026-04-23 12:11 3.39374 98.79346 40818 ft 495 kts 121°
2026-04-23 12:12 3.35841 98.85250 40818 ft 495 kts 121°
2026-04-23 12:12 3.32309 98.91183 40821 ft 497 kts 121°
2026-04-23 12:13 3.28759 98.97120 40825 ft 497 kts 121°
2026-04-23 12:13 3.25220 99.03056 40822 ft 497 kts 121°
2026-04-23 12:14 3.21668 99.08999 40821 ft 498 kts 121°
2026-04-23 12:14 3.18134 99.14921 40814 ft 496 kts 121°
2026-04-23 12:15 3.14617 99.20807 40832 ft 496 kts 121°
2026-04-23 12:15 3.11081 99.26728 40822 ft 496 kts 121°
2026-04-23 12:16 3.07541 99.32652 40819 ft 496 kts 121°
2026-04-23 12:16 3.04001 99.38576 40813 ft 496 kts 121°
2026-04-23 12:17 3.00464 99.44495 40824 ft 495 kts 121°
2026-04-23 12:17 2.96937 99.50396 40817 ft 494 kts 121°
2026-04-23 12:18 2.93409 99.56297 40810 ft 494 kts 121°
2026-04-23 12:18 2.89877 99.62203 40808 ft 495 kts 121°
2026-04-23 12:19 2.86347 99.68107 40813 ft 495 kts 121°
2026-04-23 12:19 2.82812 99.74017 40809 ft 495 kts 121°
2026-04-23 12:20 2.79276 99.79929 40813 ft 495 kts 121°
2026-04-23 12:20 2.75736 99.85844 40811 ft 496 kts 121°
2026-04-23 12:21 2.72207 99.91744 40807 ft 493 kts 121°
2026-04-23 12:21 2.68721 99.97586 40795 ft 492 kts 121°
2026-04-23 12:22 2.65223 100.03471 40793 ft 492 kts 121°
2026-04-23 12:22 2.61720 100.09347 40791 ft 493 kts 121°
2026-04-23 12:23 2.58202 100.15260 40801 ft 495 kts 121°
2026-04-23 12:23 2.54673 100.21182 40795 ft 496 kts 121°
2026-04-23 12:24 2.51147 100.27103 40801 ft 496 kts 121°
2026-04-23 12:24 2.47618 100.33025 40802 ft 496 kts 121°
2026-04-23 12:25 2.44119 100.38900 40808 ft 496 kts 121°
2026-04-23 12:25 2.40583 100.44833 40806 ft 496 kts 121°
2026-04-23 12:26 2.37050 100.50760 40800 ft 496 kts 121°
2026-04-23 12:26 2.33518 100.56687 40803 ft 496 kts 121°
2026-04-23 12:27 2.30000 100.62588 40800 ft 493 kts 121°
2026-04-23 12:27 2.26488 100.68479 40799 ft 493 kts 121°
2026-04-23 12:28 2.22975 100.74370 40792 ft 494 kts 121°
2026-04-23 12:28 2.19447 100.80288 40795 ft 496 kts 121°
2026-04-23 12:29 2.15915 100.86210 40802 ft 496 kts 121°
2026-04-23 12:29 2.12378 100.92138 40801 ft 497 kts 121°
2026-04-23 12:30 2.08836 100.98077 40799 ft 497 kts 121°
2026-04-23 12:30 2.05293 101.04016 40804 ft 497 kts 121°
2026-04-23 12:31 2.01748 101.09956 40803 ft 498 kts 121°
2026-04-23 12:31 1.98200 101.15904 40803 ft 498 kts 121°
2026-04-23 12:32 1.94676 101.21808 40799 ft 498 kts 121°
2026-04-23 12:32 1.91133 101.27744 40797 ft 497 kts 121°
2026-04-23 12:33 1.87586 101.33687 40800 ft 498 kts 121°
2026-04-23 12:33 1.84040 101.39626 40799 ft 497 kts 121°
2026-04-23 12:34 1.80503 101.45551 40803 ft 496 kts 121°
2026-04-23 12:34 1.76964 101.51478 40807 ft 497 kts 121°
2026-04-23 12:35 1.73424 101.57408 40805 ft 497 kts 121°
2026-04-23 12:35 1.69883 101.63337 40808 ft 497 kts 121°
2026-04-23 12:36 1.66339 101.69271 40805 ft 497 kts 121°
2026-04-23 12:36 1.62793 101.75207 40814 ft 498 kts 121°
2026-04-23 12:37 1.59244 101.81148 40809 ft 498 kts 121°
2026-04-23 12:37 1.55699 101.87084 40808 ft 497 kts 121°
2026-04-23 12:38 1.52149 101.93025 40814 ft 497 kts 121°
2026-04-23 12:38 1.48603 101.98961 40816 ft 497 kts 121°
2026-04-23 12:39 1.45062 102.04887 40813 ft 497 kts 121°
2026-04-23 12:39 1.41514 102.10825 40815 ft 498 kts 121°
2026-04-23 12:40 1.38355 102.16967 40805 ft 499 kts 111°
2026-04-23 12:40 1.36033 102.23496 40820 ft 498 kts 111°
2026-04-23 12:41 1.33420 102.29914 40814 ft 500 kts 112°
2026-04-23 12:41 1.30941 102.36401 40806 ft 499 kts 111°
2026-04-23 12:42 1.28406 102.42848 40799 ft 497 kts 112°
2026-04-23 12:42 1.25903 102.49276 40800 ft 496 kts 111°
2026-04-23 12:43 1.23400 102.55698 40811 ft 495 kts 112°
2026-04-23 12:43 1.20911 102.62065 40805 ft 496 kts 111°
2026-04-23 12:44 1.18413 102.68478 40794 ft 494 kts 111°
2026-04-23 12:44 1.15906 102.74893 40796 ft 496 kts 111°
2026-04-23 12:45 1.13404 102.81309 40793 ft 497 kts 111°
2026-04-23 12:45 1.10890 102.87748 40794 ft 497 kts 111°
2026-04-23 12:46 1.08376 102.94189 40800 ft 497 kts 111°
2026-04-23 12:46 1.05859 103.00636 40798 ft 498 kts 111°
2026-04-23 12:47 1.03347 103.07072 40806 ft 498 kts 111°
2026-04-23 12:47 1.00830 103.13520 40805 ft 497 kts 111°
2026-04-23 12:48 0.98299 103.19957 40807 ft 498 kts 111°
2026-04-23 12:48 0.95693 103.26362 40815 ft 498 kts 111°
2026-04-23 12:49 0.93133 103.32786 40808 ft 498 kts 111°
2026-04-23 12:49 0.90550 103.39193 40818 ft 497 kts 111°
2026-04-23 12:50 0.87976 103.45616 40820 ft 498 kts 111°
2026-04-23 12:50 0.85397 103.52030 40818 ft 497 kts 111°
2026-04-23 12:51 0.82836 103.58408 40820 ft 498 kts 111°
2026-04-23 12:51 0.80257 103.64829 40827 ft 498 kts 111°
2026-04-23 12:52 0.77677 103.71252 40825 ft 498 kts 111°
2026-04-23 12:52 0.75095 103.77680 40824 ft 498 kts 111°
2026-04-23 12:53 0.72514 103.84103 40830 ft 498 kts 111°
2026-04-23 12:53 0.69945 103.90498 40831 ft 494 kts 111°
2026-04-23 12:54 0.67814 103.95802 40842 ft 495 kts 111°
2026-04-23 12:54 0.65251 104.02181 40843 ft 495 kts 111°
2026-04-23 12:55 0.62687 104.08562 40847 ft 495 kts 111°
2026-04-23 12:55 0.60124 104.14941 40844 ft 495 kts 111°
2026-04-23 12:56 0.57563 104.21314 40845 ft 494 kts 111°
2026-04-23 12:56 0.55010 104.27667 40850 ft 493 kts 111°
2026-04-23 12:57 0.52456 104.34023 40852 ft 493 kts 111°
2026-04-23 12:57 0.49904 104.40372 40849 ft 492 kts 111°
2026-04-23 12:58 0.47353 104.46719 40853 ft 492 kts 111°
2026-04-23 12:58 0.44805 104.53060 40850 ft 492 kts 111°
2026-04-23 12:59 0.42257 104.59400 40847 ft 492 kts 111°
2026-04-23 12:59 0.39702 104.65757 40854 ft 493 kts 111°
2026-04-23 13:00 0.37143 104.72123 40851 ft 493 kts 111°
2026-04-23 13:00 0.34586 104.78486 40860 ft 493 kts 111°
2026-04-23 13:01 0.32028 104.84849 40859 ft 494 kts 111°
2026-04-23 13:01 0.29470 104.91214 40869 ft 494 kts 111°
2026-04-23 13:02 0.26917 104.97562 40853 ft 491 kts 111°
2026-04-23 13:02 0.24274 105.03803 40872 ft 491 kts 117°
2026-04-23 13:03 0.20800 105.09698 40864 ft 492 kts 120°
2026-04-23 13:03 0.17387 105.15621 40866 ft 492 kts 118°
2026-04-23 13:04 0.13979 105.21532 40863 ft 493 kts 120°
2026-04-23 13:04 0.10524 105.27478 40862 ft 492 kts 118°
2026-04-23 13:05 0.07119 105.33392 40858 ft 490 kts 119°
2026-04-23 13:05 0.03695 105.39292 40860 ft 491 kts 119°
2026-04-23 13:06 -0.01431 105.48163 40854 ft 491 kts 119°
2026-04-23 13:07 -0.04836 105.54053 40851 ft 490 kts 119°
2026-04-23 13:07 -0.08182 105.59840 40854 ft 490 kts 119°
2026-04-23 13:08 -0.11587 105.65728 40847 ft 489 kts 119°
2026-04-23 13:08 -0.14986 105.71606 40850 ft 489 kts 119°
2026-04-23 13:09 -0.18390 105.77492 40855 ft 489 kts 119°
2026-04-23 13:09 -0.21798 105.83386 40856 ft 490 kts 119°
2026-04-23 13:10 -0.25210 105.89285 40864 ft 490 kts 119°
2026-04-23 13:10 -0.28614 105.95173 40860 ft 490 kts 119°
2026-04-23 13:11 -0.32024 106.01069 40858 ft 489 kts 119°
2026-04-23 13:11 -0.35411 106.06927 40850 ft 488 kts 119°
2026-04-23 13:12 -0.38820 106.12822 40854 ft 489 kts 119°
2026-04-23 13:12 -0.42226 106.18712 40857 ft 490 kts 119°
2026-04-23 13:13 -0.45633 106.24605 40858 ft 490 kts 119°
2026-04-23 13:13 -0.49043 106.30502 40860 ft 490 kts 119°
2026-04-23 13:14 -0.52450 106.36396 40857 ft 491 kts 119°
2026-04-23 13:14 -0.55867 106.42304 40857 ft 491 kts 119°
2026-04-23 13:15 -0.59284 106.48215 40859 ft 491 kts 119°
2026-04-23 13:15 -0.62909 106.53932 40879 ft 491 kts 129°
2026-04-23 13:16 -0.67512 106.58984 40872 ft 492 kts 133°
2026-04-23 13:16 -0.72012 106.64110 40868 ft 490 kts 129°
2026-04-23 13:17 -0.76475 106.69276 40866 ft 492 kts 131°
2026-04-23 13:17 -0.80992 106.74395 40868 ft 491 kts 130°
2026-04-23 13:18 -0.85466 106.79563 40866 ft 492 kts 130°
2026-04-23 13:18 -0.89983 106.84705 40870 ft 492 kts 130°
2026-04-23 13:19 -0.94477 106.89873 40869 ft 492 kts 130°
2026-04-23 13:19 -0.98985 106.95024 40870 ft 492 kts 130°
2026-04-23 13:20 -1.03478 107.00179 40867 ft 492 kts 130°
2026-04-23 13:20 -1.07981 107.05332 40865 ft 492 kts 130°
2026-04-23 13:21 -1.12469 107.10476 40863 ft 491 kts 130°
2026-04-23 13:21 -1.16967 107.15629 40868 ft 492 kts 130°
2026-04-23 13:22 -1.21459 107.20775 40866 ft 491 kts 130°
2026-04-23 13:22 -1.25942 107.25913 40864 ft 491 kts 130°
2026-04-23 13:23 -1.30427 107.31052 40866 ft 491 kts 130°
2026-04-23 13:23 -1.34917 107.36197 40868 ft 491 kts 130°
2026-04-23 13:24 -1.39407 107.41343 40871 ft 491 kts 130°
2026-04-23 13:24 -1.43890 107.46481 40868 ft 490 kts 130°
2026-04-23 13:25 -1.48374 107.51620 40871 ft 491 kts 130°
2026-04-23 13:25 -1.52866 107.56769 40874 ft 492 kts 130°
2026-04-23 13:26 -1.57328 107.61883 40871 ft 491 kts 130°
2026-04-23 13:26 -1.61812 107.67024 40868 ft 490 kts 130°
2026-04-23 13:27 -1.66294 107.72163 40870 ft 491 kts 130°
2026-04-23 13:27 -1.70780 107.77306 40870 ft 491 kts 130°
2026-04-23 13:28 -1.75269 107.82454 40873 ft 492 kts 130°
2026-04-23 13:28 -1.79765 107.87609 40871 ft 492 kts 130°
2026-04-23 13:29 -1.84257 107.92760 40873 ft 491 kts 130°
2026-04-23 13:29 -1.88742 107.97905 40875 ft 492 kts 130°
2026-04-23 13:30 -1.93254 108.03081 40874 ft 492 kts 130°
2026-04-23 13:30 -1.97747 108.08233 40872 ft 491 kts 130°
2026-04-23 13:31 -2.02229 108.13377 40870 ft 491 kts 130°
2026-04-23 13:31 -2.06717 108.18525 40872 ft 491 kts 130°
2026-04-23 13:32 -2.11202 108.23672 40869 ft 491 kts 130°
2026-04-23 13:32 -2.15682 108.28812 40868 ft 491 kts 130°
2026-04-23 13:33 -2.20180 108.33975 40872 ft 493 kts 130°
2026-04-23 13:33 -2.24682 108.39142 40873 ft 493 kts 130°
2026-04-23 13:34 -2.29187 108.44312 40878 ft 492 kts 129°
2026-04-23 13:34 -2.33679 108.49470 40876 ft 492 kts 129°
2026-04-23 13:35 -2.38173 108.54630 40878 ft 492 kts 129°
2026-04-23 13:35 -2.42635 108.59753 40879 ft 492 kts 129°
2026-04-23 13:36 -2.47120 108.64904 40877 ft 492 kts 129°
2026-04-23 13:36 -2.51615 108.70079 40878 ft 492 kts 129°
2026-04-23 13:37 -2.56088 108.75263 40877 ft 493 kts 129°
2026-04-23 13:37 -2.60582 108.80450 40877 ft 493 kts 129°
2026-04-23 13:38 -2.65066 108.85639 40882 ft 493 kts 129°
2026-04-23 13:38 -2.69549 108.90821 40881 ft 493 kts 129°
2026-04-23 13:39 -2.74031 108.96006 40877 ft 492 kts 129°
2026-04-23 13:39 -2.78512 109.01187 40879 ft 492 kts 129°
2026-04-23 13:40 -2.82990 109.06368 40878 ft 493 kts 129°
2026-04-23 13:40 -2.87473 109.11554 40880 ft 493 kts 129°
2026-04-23 13:41 -2.91955 109.16748 40882 ft 493 kts 129°
2026-04-23 13:41 -2.96422 109.21946 40883 ft 493 kts 129°
2026-04-23 13:42 -3.00146 109.26267 40885 ft 493 kts 129°
2026-04-23 13:42 -3.04618 109.31467 40888 ft 493 kts 129°
2026-04-23 13:43 -3.09096 109.36669 40887 ft 493 kts 129°
2026-04-23 13:43 -3.13573 109.41874 40885 ft 494 kts 129°
2026-04-23 13:44 -3.18056 109.47086 40888 ft 494 kts 129°
2026-04-23 13:44 -3.22541 109.52301 40882 ft 494 kts 129°
2026-04-23 13:45 -3.27016 109.57504 40881 ft 493 kts 129°
2026-04-23 13:45 -3.31452 109.62664 40882 ft 493 kts 129°
2026-04-23 13:46 -3.35961 109.67908 40880 ft 493 kts 129°
2026-04-23 13:46 -3.40433 109.73112 40880 ft 493 kts 129°
2026-04-23 13:47 -3.44911 109.78321 40883 ft 493 kts 129°
2026-04-23 13:47 -3.49379 109.83522 40884 ft 492 kts 129°
2026-04-23 13:48 -3.53842 109.88717 40884 ft 492 kts 129°
2026-04-23 13:48 -3.58305 109.93912 40888 ft 492 kts 129°
2026-04-23 13:49 -3.62744 109.99081 40885 ft 493 kts 129°
2026-04-23 13:49 -3.67217 110.04289 40887 ft 493 kts 129°
2026-04-23 13:50 -3.71686 110.09495 40887 ft 493 kts 129°
2026-04-23 13:50 -3.76157 110.14703 40890 ft 493 kts 129°
2026-04-23 13:51 -3.80615 110.19897 40888 ft 492 kts 129°
2026-04-23 13:51 -3.85075 110.25095 40890 ft 492 kts 129°
2026-04-23 13:52 -3.89535 110.30292 40889 ft 492 kts 129°
2026-04-23 13:52 -3.93999 110.35497 40891 ft 493 kts 129°
2026-04-23 13:53 -3.98317 110.40815 40887 ft 493 kts 126°
2026-04-23 13:53 -4.02538 110.46215 40888 ft 491 kts 126°
2026-04-23 13:54 -4.06693 110.51628 40885 ft 490 kts 126°
2026-04-23 13:54 -4.10871 110.57023 40888 ft 490 kts 126°
2026-04-23 13:55 -4.15035 110.62424 40886 ft 490 kts 126°
2026-04-23 13:55 -4.19202 110.67821 40888 ft 490 kts 126°
2026-04-23 13:56 -4.23368 110.73218 40887 ft 489 kts 126°
2026-04-23 13:56 -4.27528 110.78611 40886 ft 489 kts 126°
2026-04-23 13:57 -4.31670 110.83980 40887 ft 491 kts 126°
2026-04-23 13:57 -4.35842 110.89389 40890 ft 491 kts 126°
2026-04-23 13:58 -4.40017 110.94804 40892 ft 491 kts 126°
2026-04-23 13:58 -4.44196 111.00224 40894 ft 491 kts 126°
2026-04-23 13:59 -4.48374 111.05645 40895 ft 492 kts 126°
2026-04-23 13:59 -4.52558 111.11074 40895 ft 492 kts 126°
2026-04-23 14:00 -4.56064 111.15624 40893 ft 493 kts 126°
2026-04-23 14:00 -4.60930 111.21942 40893 ft 492 kts 126°
2026-04-23 14:01 -4.65453 111.27109 40894 ft 493 kts 130°
2026-04-23 14:01 -4.70055 111.32198 40893 ft 492 kts 130°
2026-04-23 14:02 -4.74643 111.37289 40892 ft 492 kts 130°
2026-04-23 14:02 -4.79246 111.42388 40894 ft 494 kts 130°
2026-04-23 14:03 -4.83851 111.47495 40893 ft 494 kts 130°
2026-04-23 14:03 -4.88457 111.52602 40892 ft 494 kts 130°
2026-04-23 14:04 -4.93062 111.57710 40898 ft 494 kts 130°
2026-04-23 14:04 -4.97668 111.62819 40897 ft 495 kts 130°
2026-04-23 14:05 -5.02283 111.67940 40894 ft 495 kts 130°
2026-04-23 14:05 -5.06897 111.73061 40895 ft 494 kts 130°
2026-04-23 14:06 -5.11505 111.78177 40896 ft 494 kts 130°
2026-04-23 14:06 -5.16111 111.83291 40897 ft 494 kts 130°
2026-04-23 14:07 -5.20711 111.88401 40895 ft 494 kts 130°
2026-04-23 14:07 -5.27635 111.96094 40899 ft 496 kts 130°
2026-04-23 14:08 -5.32254 112.01227 40901 ft 496 kts 130°
2026-04-23 14:08 -5.36879 112.06368 40900 ft 496 kts 130°
2026-04-23 14:09 -5.41477 112.11480 40900 ft 496 kts 130°
2026-04-23 14:09 -5.46100 112.16622 40901 ft 496 kts 130°
2026-04-23 14:10 -5.50718 112.21759 40902 ft 495 kts 130°
2026-04-23 14:10 -5.55333 112.26895 40902 ft 495 kts 130°
2026-04-23 14:11 -5.59946 112.32028 40899 ft 495 kts 130°
2026-04-23 14:11 -5.63766 112.36282 40894 ft 495 kts 130°
2026-04-23 14:12 -5.68376 112.41415 40899 ft 495 kts 130°
2026-04-23 14:12 -5.72991 112.46555 40903 ft 496 kts 130°
2026-04-23 14:13 -5.77616 112.51707 40905 ft 497 kts 130°
2026-04-23 14:13 -5.82238 112.56858 40904 ft 496 kts 130°
2026-04-23 14:14 -5.86848 112.61997 40900 ft 496 kts 130°
2026-04-23 14:14 -5.91469 112.67149 40904 ft 496 kts 130°
2026-04-23 14:15 -5.96088 112.72301 40907 ft 497 kts 130°
2026-04-23 14:15 -6.00725 112.77473 40908 ft 498 kts 130°
2026-04-23 14:16 -6.05360 112.82645 40905 ft 499 kts 130°
2026-04-23 14:16 -6.09997 112.87822 40910 ft 498 kts 130°
2026-04-23 14:17 -6.14636 112.93002 40904 ft 498 kts 130°
2026-04-23 14:17 -6.19238 112.98141 40899 ft 498 kts 130°
2026-04-23 14:18 -6.23866 113.03311 40900 ft 498 kts 130°
2026-04-23 14:18 -6.28495 113.08484 40898 ft 497 kts 130°
2026-04-23 14:19 -6.33124 113.13658 40900 ft 498 kts 130°
2026-04-23 14:19 -6.37756 113.18837 40900 ft 498 kts 130°
2026-04-23 14:20 -6.42384 113.24014 40903 ft 498 kts 130°
2026-04-23 14:20 -6.47007 113.29185 40902 ft 497 kts 130°
2026-04-23 14:21 -6.51629 113.34358 40900 ft 497 kts 130°
2026-04-23 14:21 -6.56260 113.39542 40908 ft 498 kts 130°
2026-04-23 14:22 -6.60895 113.44733 40898 ft 499 kts 131°
2026-04-23 14:22 -6.65533 113.49927 40902 ft 499 kts 130°
2026-04-23 14:23 -6.69886 113.54804 40894 ft 498 kts 131°
2026-04-23 14:23 -6.74511 113.59988 40897 ft 498 kts 131°
2026-04-23 14:24 -6.79138 113.65175 40899 ft 498 kts 131°
2026-04-23 14:24 -6.83761 113.70361 40901 ft 498 kts 130°
2026-04-23 14:25 -6.88382 113.75544 40896 ft 498 kts 130°
2026-04-23 14:25 -6.93004 113.80731 40898 ft 498 kts 130°
2026-04-23 14:26 -6.97635 113.85929 40896 ft 499 kts 131°
2026-04-23 14:26 -7.02542 113.90857 40921 ft 501 kts 142°
2026-04-23 14:27 -7.08305 113.94809 40905 ft 501 kts 146°
2026-04-23 14:27 -7.13975 113.98867 40910 ft 500 kts 141°
2026-04-23 14:28 -7.19588 114.03010 40911 ft 501 kts 144°
2026-04-23 14:28 -7.25239 114.07049 40913 ft 501 kts 142°
2026-04-23 14:29 -7.30856 114.11176 40903 ft 500 kts 143°
2026-04-23 14:29 -7.35602 114.14588 40906 ft 500 kts 143°
2026-04-23 14:30 -7.41229 114.18699 40903 ft 500 kts 143°
2026-04-23 14:30 -7.46880 114.22793 40905 ft 500 kts 143°
2026-04-23 14:31 -7.52519 114.26898 40910 ft 499 kts 143°
2026-04-23 14:31 -7.58158 114.30997 40908 ft 500 kts 143°
2026-04-23 14:32 -7.63802 114.35104 40919 ft 501 kts 143°
2026-04-23 14:32 -7.69451 114.39214 40917 ft 501 kts 143°
2026-04-23 14:33 -7.75056 114.43294 40918 ft 500 kts 143°
2026-04-23 14:33 -7.80695 114.47401 40918 ft 500 kts 143°
2026-04-23 14:34 -7.86336 114.51509 40920 ft 500 kts 143°
2026-04-23 14:34 -7.91978 114.55621 40920 ft 500 kts 143°
2026-04-23 14:35 -7.97615 114.59729 40919 ft 502 kts 143°
2026-04-23 14:35 -8.03269 114.63852 40927 ft 502 kts 143°
2026-04-23 14:36 -8.08930 114.67982 40928 ft 502 kts 143°
2026-04-23 14:36 -8.14583 114.72107 40926 ft 501 kts 143°
2026-04-23 14:37 -8.20232 114.76231 40930 ft 501 kts 143°
2026-04-23 14:37 -8.25886 114.80359 40937 ft 501 kts 143°
2026-04-23 14:38 -8.31539 114.84489 40940 ft 502 kts 143°
2026-04-23 14:38 -8.37187 114.88616 40940 ft 502 kts 143°
2026-04-23 14:39 -8.42848 114.92754 40940 ft 502 kts 143°
2026-04-23 14:39 -8.48511 114.96895 40942 ft 502 kts 143°
2026-04-23 14:40 -8.54169 115.01035 40930 ft 502 kts 143°
2026-04-23 14:40 -8.59811 115.05164 40920 ft 501 kts 143°
2026-04-23 14:41 -8.65467 115.09304 40913 ft 502 kts 143°
2026-04-23 14:41 -8.71131 115.13453 40912 ft 502 kts 143°
2026-04-23 14:42 -8.76544 115.17880 40941 ft 501 kts 129°
2026-04-23 14:42 -8.80270 115.23786 40929 ft 500 kts 115°
2026-04-23 14:43 -8.83234 115.30142 40923 ft 500 kts 116°
2026-04-23 14:43 -8.86833 115.36151 40919 ft 499 kts 123°
2026-04-23 14:44 -8.90508 115.42069 40923 ft 499 kts 118°
2026-04-23 14:44 -8.94001 115.48108 40928 ft 500 kts 121°
2026-04-23 14:45 -8.97655 115.54092 40925 ft 500 kts 119°
2026-04-23 14:45 -9.01202 115.60132 40922 ft 500 kts 120°
2026-04-23 14:46 -9.04819 115.66140 40928 ft 501 kts 120°
2026-04-23 14:46 -9.08403 115.72189 40927 ft 501 kts 120°
2026-04-23 14:47 -9.12010 115.78226 40930 ft 501 kts 120°
2026-04-23 14:47 -9.15604 115.84273 40931 ft 502 kts 120°
2026-04-23 14:48 -9.19207 115.90322 40923 ft 501 kts 120°
2026-04-23 14:48 -9.22791 115.96351 40933 ft 501 kts 120°
2026-04-23 14:49 -9.26380 116.02387 40926 ft 499 kts 121°
2026-04-23 14:49 -9.29960 116.08411 40920 ft 500 kts 121°
2026-04-23 14:50 -9.33546 116.14448 40931 ft 500 kts 121°
2026-04-23 14:50 -9.37127 116.20483 40930 ft 499 kts 120°
2026-04-23 14:51 -9.40706 116.26513 40931 ft 500 kts 120°
2026-04-23 14:51 -9.44290 116.32558 40928 ft 501 kts 120°
2026-04-23 14:52 -9.47848 116.38559 40926 ft 500 kts 121°
2026-04-23 14:52 -9.51430 116.44606 40927 ft 501 kts 120°
2026-04-23 14:53 -9.55041 116.50703 40929 ft 502 kts 120°
2026-04-23 14:53 -9.58607 116.56728 40931 ft 501 kts 120°
2026-04-23 14:54 -9.62191 116.62785 40926 ft 501 kts 119°
2026-04-23 14:54 -9.65771 116.68842 40926 ft 501 kts 119°
2026-04-23 14:55 -9.69354 116.74903 40933 ft 502 kts 120°
2026-04-23 14:55 -9.72935 116.80967 40930 ft 501 kts 119°
2026-04-23 14:56 -9.76512 116.87028 40930 ft 501 kts 120°
2026-04-23 14:56 -9.80059 116.93036 40928 ft 494 kts 120°
2026-04-23 14:57 -9.83594 116.99031 40929 ft 494 kts 120°
2026-04-23 14:57 -9.87116 117.05005 40926 ft 492 kts 119°
2026-04-23 14:58 -9.90635 117.10979 40924 ft 493 kts 120°
2026-04-23 14:58 -9.94150 117.16948 40921 ft 495 kts 120°
2026-04-23 14:59 -9.97654 117.22902 40928 ft 488 kts 120°
2026-04-23 14:59 -10.01126 117.28805 40925 ft 488 kts 120°
2026-04-23 15:00 -10.04549 117.34751 40923 ft 487 kts 118°
2026-04-23 15:00 -10.07953 117.40701 40928 ft 487 kts 120°
2026-04-23 15:01 -10.11297 117.46684 40934 ft 487 kts 118°
2026-04-23 15:01 -10.14660 117.52666 40929 ft 487 kts 119°
2026-04-23 15:02 -10.18008 117.58617 40925 ft 491 kts 118°
2026-04-23 15:02 -10.21370 117.64617 40933 ft 488 kts 118°
2026-04-23 15:03 -10.24728 117.70594 40927 ft 489 kts 118°
2026-04-23 15:03 -10.28087 117.76590 40927 ft 488 kts 119°
2026-04-23 15:04 -10.31444 117.82577 40933 ft 488 kts 119°
2026-04-23 15:04 -10.34793 117.88559 40936 ft 489 kts 119°
2026-04-23 15:05 -10.38174 117.94597 40934 ft 493 kts 119°
2026-04-23 15:05 -10.41575 118.00675 40936 ft 495 kts 118°
2026-04-23 15:06 -10.44969 118.06745 40937 ft 494 kts 118°
2026-04-23 15:06 -10.48380 118.12848 40935 ft 498 kts 118°
2026-04-23 15:07 -10.51798 118.18966 40932 ft 500 kts 118°
2026-04-23 15:07 -10.55229 118.25112 40938 ft 498 kts 118°
2026-04-23 15:08 -10.58644 118.31235 40937 ft 499 kts 118°
2026-04-23 15:09 -10.63780 118.40444 40939 ft 501 kts 117°
2026-04-23 15:09 -10.67218 118.46616 40929 ft 503 kts 117°
2026-04-23 15:10 -10.70084 118.51765 40941 ft 503 kts 117°
2026-04-23 15:10 -10.74113 118.59003 40941 ft 503 kts 118°
2026-04-23 15:11 -10.77556 118.65193 40935 ft 503 kts 117°
2026-04-23 15:11 -10.81000 118.71391 40939 ft 504 kts 118°
2026-04-23 15:12 -10.84446 118.77594 40942 ft 504 kts 118°
2026-04-23 15:12 -10.87891 118.83798 40943 ft 504 kts 118°
2026-04-23 15:13 -10.91335 118.90006 40933 ft 505 kts 118°
2026-04-23 15:13 -10.94787 118.96231 40938 ft 505 kts 118°
2026-04-23 15:14 -10.98231 119.02443 40938 ft 504 kts 117°
2026-04-23 15:14 -11.01675 119.08663 40939 ft 505 kts 117°
2026-04-23 15:15 -11.05126 119.14896 40937 ft 504 kts 117°
2026-04-23 15:15 -11.08568 119.21119 40940 ft 504 kts 117°
2026-04-23 15:16 -11.12009 119.27341 40942 ft 504 kts 116°
2026-04-23 15:16 -11.14870 119.32521 40945 ft 505 kts 117°
2026-04-23 15:17 -11.18311 119.38753 40943 ft 505 kts 118°
2026-04-23 15:17 -11.21752 119.44983 40938 ft 505 kts 117°
2026-04-23 15:18 -11.25188 119.51218 40936 ft 506 kts 117°
2026-04-23 15:18 -11.28633 119.57464 40940 ft 505 kts 117°
2026-04-23 15:19 -11.32065 119.63697 40947 ft 504 kts 118°
2026-04-23 15:19 -11.35494 119.69923 40945 ft 504 kts 117°
2026-04-23 15:20 -11.38929 119.76171 40950 ft 505 kts 118°
2026-04-23 15:20 -11.42362 119.82411 40942 ft 504 kts 118°
2026-04-23 15:21 -11.45791 119.88650 40954 ft 505 kts 117°
2026-04-23 15:21 -11.49198 119.94854 40951 ft 506 kts 117°
2026-04-23 15:22 -11.52635 120.01116 40945 ft 506 kts 117°
2026-04-23 15:22 -11.56063 120.07366 40951 ft 506 kts 117°
2026-04-23 15:23 -11.59489 120.13616 40944 ft 506 kts 116°
2026-04-23 15:23 -11.62919 120.19878 40958 ft 505 kts 116°
2026-04-23 15:24 -11.66346 120.26139 40957 ft 506 kts 117°
2026-04-23 15:24 -11.69777 120.32410 40955 ft 506 kts 116°
2026-04-23 15:25 -11.73209 120.38689 40961 ft 507 kts 116°
2026-04-23 15:25 -11.76641 120.44968 40961 ft 507 kts 117°
2026-04-23 15:26 -11.80073 120.51254 40962 ft 508 kts 116°
2026-04-23 15:26 -11.83510 120.57552 40955 ft 508 kts 117°
2026-04-23 15:27 -11.86947 120.63855 40959 ft 508 kts 117°
2026-04-23 15:27 -11.90379 120.70153 40960 ft 507 kts 117°
2026-04-23 15:28 -11.93808 120.76450 40962 ft 508 kts 117°
2026-04-23 15:28 -11.97243 120.82763 40943 ft 508 kts 117°
2026-04-23 15:29 -12.00861 120.88964 40982 ft 510 kts 127°
2026-04-23 15:29 -12.05826 120.94106 40960 ft 514 kts 137°
2026-04-23 15:30 -12.11205 120.98904 40966 ft 513 kts 133°
2026-04-23 15:30 -12.16148 121.04174 40960 ft 515 kts 133°
2026-04-23 15:31 -12.21311 121.09234 40970 ft 513 kts 134°
2026-04-23 15:31 -12.26368 121.14396 40966 ft 515 kts 133°
2026-04-23 15:32 -12.31476 121.19522 40953 ft 515 kts 134°
2026-04-23 15:32 -12.36585 121.24682 40958 ft 516 kts 133°
2026-04-23 15:33 -12.41683 121.29834 40958 ft 516 kts 134°
2026-04-23 15:33 -12.46784 121.34980 40963 ft 514 kts 134°
2026-04-23 15:34 -12.51863 121.40122 40958 ft 515 kts 134°
2026-04-23 15:34 -12.56958 121.45269 40962 ft 515 kts 134°
2026-04-23 15:35 -12.62042 121.50418 40970 ft 514 kts 134°
2026-04-23 15:35 -12.67090 121.55527 40969 ft 514 kts 134°
2026-04-23 15:36 -12.72167 121.60673 40966 ft 514 kts 134°
2026-04-23 15:36 -12.77253 121.65828 40964 ft 515 kts 133°
2026-04-23 15:37 -12.82345 121.70995 40963 ft 515 kts 133°
2026-04-23 15:37 -12.87437 121.76162 40966 ft 515 kts 133°
2026-04-23 15:38 -12.92526 121.81331 40962 ft 515 kts 133°
2026-04-23 15:38 -12.97610 121.86498 40950 ft 515 kts 133°
2026-04-23 15:39 -13.02694 121.91668 40973 ft 515 kts 133°
2026-04-23 15:39 -13.07784 121.96848 40952 ft 516 kts 133°
2026-04-23 15:40 -13.12879 122.02035 40972 ft 516 kts 133°
2026-04-23 15:40 -13.17975 122.07227 40964 ft 516 kts 133°
2026-04-23 15:41 -13.23052 122.12402 40956 ft 514 kts 133°
2026-04-23 15:41 -13.28134 122.17586 40969 ft 514 kts 133°
2026-04-23 15:42 -13.33197 122.22754 40967 ft 515 kts 134°
2026-04-23 15:42 -13.38290 122.27956 40980 ft 516 kts 134°
2026-04-23 15:43 -13.43367 122.33144 40958 ft 516 kts 134°
2026-04-23 15:43 -13.48465 122.38357 40966 ft 517 kts 134°
2026-04-23 15:44 -13.53560 122.43570 40962 ft 518 kts 134°
2026-04-23 15:44 -13.58662 122.48795 40970 ft 518 kts 134°
2026-04-23 15:45 -13.63765 122.54023 40959 ft 517 kts 134°
2026-04-23 15:45 -13.68862 122.59249 40961 ft 518 kts 134°
2026-04-23 15:46 -13.73918 122.64436 40959 ft 516 kts 134°
2026-04-23 15:46 -13.78994 122.69647 40958 ft 515 kts 134°
2026-04-23 15:47 -13.84069 122.74860 40960 ft 516 kts 134°
2026-04-23 15:47 -13.89153 122.80086 40964 ft 517 kts 134°
2026-04-23 15:48 -13.94237 122.85315 40960 ft 517 kts 134°
2026-04-23 15:48 -13.99327 122.90554 40978 ft 516 kts 134°
2026-04-23 15:49 -14.04399 122.95778 40976 ft 516 kts 134°
2026-04-23 15:49 -14.09468 123.01003 40982 ft 516 kts 134°
2026-04-23 15:50 -14.14543 123.06237 40964 ft 518 kts 134°
2026-04-23 15:50 -14.19633 123.11489 40966 ft 518 kts 134°
2026-04-23 15:51 -14.24727 123.16751 40965 ft 518 kts 134°
2026-04-23 15:51 -14.29810 123.22003 40961 ft 518 kts 134°
2026-04-23 15:52 -14.34898 123.27265 40963 ft 518 kts 134°
2026-04-23 15:52 -14.39984 123.32528 40961 ft 519 kts 134°
2026-04-23 15:53 -14.45081 123.37805 40962 ft 519 kts 134°
2026-04-23 15:53 -14.50139 123.43047 40965 ft 519 kts 134°
2026-04-23 15:54 -14.55229 123.48326 40966 ft 519 kts 134°
2026-04-23 15:54 -14.60320 123.53608 40983 ft 519 kts 134°
2026-04-23 15:55 -14.65417 123.58901 40971 ft 521 kts 134°
2026-04-23 15:55 -14.70524 123.64207 40971 ft 521 kts 134°
2026-04-23 15:56 -14.75636 123.69523 40971 ft 522 kts 134°
2026-04-23 15:56 -14.80739 123.74833 40971 ft 520 kts 134°
2026-04-23 15:57 -14.85833 123.80139 40970 ft 520 kts 134°
2026-04-23 15:57 -14.90939 123.85459 40968 ft 522 kts 134°
2026-04-23 15:58 -14.96056 123.90795 40971 ft 523 kts 134°
2026-04-23 15:58 -15.01176 123.96138 40976 ft 523 kts 134°
2026-04-23 15:59 -15.06298 124.01487 40975 ft 523 kts 134°
2026-04-23 15:59 -15.11414 124.06833 40974 ft 522 kts 134°
2026-04-23 16:00 -15.16524 124.12178 40973 ft 523 kts 134°
2026-04-23 16:00 -15.21640 124.17532 40977 ft 523 kts 134°
2026-04-23 16:01 -15.26752 124.22886 40980 ft 523 kts 134°
2026-04-23 16:01 -15.31861 124.28241 40981 ft 523 kts 134°
2026-04-23 16:02 -15.36972 124.33603 40979 ft 523 kts 134°
2026-04-23 16:02 -15.42087 124.38971 40978 ft 524 kts 134°
2026-04-23 16:03 -15.47196 124.44339 40972 ft 523 kts 134°
2026-04-23 16:03 -15.52273 124.49676 40976 ft 523 kts 134°
2026-04-23 16:04 -15.57382 124.55051 40975 ft 522 kts 134°
2026-04-23 16:04 -15.62487 124.60426 40977 ft 523 kts 134°
2026-04-23 16:05 -15.66770 124.64938 40979 ft 524 kts 134°
2026-04-23 16:05 -15.72712 124.71203 40984 ft 525 kts 134°
2026-04-23 16:06 -15.77828 124.76601 40987 ft 524 kts 134°
2026-04-23 16:06 -15.82939 124.81999 40991 ft 524 kts 134°
2026-04-23 16:07 -15.87222 124.86525 40996 ft 524 kts 134°
2026-04-23 16:07 -15.92315 124.91911 41000 ft 527 kts 134°
2026-04-23 16:08 -15.97490 124.97388 41009 ft 528 kts 134°
2026-04-23 16:08 -16.02628 125.02829 41004 ft 527 kts 134°
2026-04-23 16:09 -16.07725 125.08232 41007 ft 527 kts 134°
2026-04-23 16:09 -16.12860 125.13679 41011 ft 527 kts 134°
2026-04-23 16:10 -16.18006 125.19142 41015 ft 529 kts 134°
2026-04-23 16:10 -16.23158 125.24616 41018 ft 529 kts 134°
2026-04-23 16:11 -16.28304 125.30088 41019 ft 529 kts 134°
2026-04-23 16:11 -16.33455 125.35569 41027 ft 529 kts 134°
2026-04-23 16:12 -16.38605 125.41054 41020 ft 530 kts 134°
2026-04-23 16:12 -16.43758 125.46546 41024 ft 530 kts 134°
2026-04-23 16:13 -16.48906 125.52038 41021 ft 530 kts 134°
2026-04-23 16:13 -16.56631 125.60287 41024 ft 530 kts 134°
2026-04-23 16:14 -16.61780 125.65792 41025 ft 529 kts 134°
2026-04-23 16:14 -16.66922 125.71292 41024 ft 530 kts 134°
2026-04-23 16:15 -16.72069 125.76805 41031 ft 531 kts 134°
2026-04-23 16:15 -16.77224 125.82328 41027 ft 531 kts 134°
2026-04-23 16:16 -16.82378 125.87856 41031 ft 531 kts 134°
2026-04-23 16:16 -16.87523 125.93379 41022 ft 530 kts 134°
2026-04-23 16:17 -16.92661 125.98899 41017 ft 530 kts 134°
2026-04-23 16:17 -16.97794 126.04418 41017 ft 530 kts 134°
2026-04-23 16:18 -17.02938 126.09952 41021 ft 531 kts 134°
2026-04-23 16:18 -17.08082 126.15494 41025 ft 532 kts 134°
2026-04-23 16:19 -17.13236 126.21049 41025 ft 531 kts 134°
2026-04-23 16:19 -17.18372 126.26589 41015 ft 530 kts 135°
2026-04-23 16:20 -17.23510 126.32137 41014 ft 531 kts 135°
2026-04-23 16:20 -17.28646 126.37688 41019 ft 531 kts 135°
2026-04-23 16:21 -17.33779 126.43239 41020 ft 531 kts 135°
2026-04-23 16:21 -17.38882 126.48763 41022 ft 531 kts 135°
2026-04-23 16:22 -17.44014 126.54323 41024 ft 531 kts 135°
2026-04-23 16:22 -17.49145 126.59887 41025 ft 531 kts 135°
2026-04-23 16:23 -17.54278 126.65458 41031 ft 531 kts 135°
2026-04-23 16:23 -17.59411 126.71034 41033 ft 531 kts 135°
2026-04-23 16:24 -17.64541 126.76612 41036 ft 532 kts 135°
2026-04-23 16:24 -17.69669 126.82192 41034 ft 531 kts 135°
2026-04-23 16:25 -17.74792 126.87771 41041 ft 531 kts 135°
2026-04-23 16:25 -17.79924 126.93366 41042 ft 532 kts 135°
2026-04-23 16:26 -17.85059 126.98968 41047 ft 532 kts 135°
2026-04-23 16:26 -17.90190 127.04570 41051 ft 533 kts 135°
2026-04-23 16:27 -17.95326 127.10185 41056 ft 533 kts 135°
2026-04-23 16:27 -18.00472 127.15814 41053 ft 534 kts 135°
2026-04-23 16:28 -18.05618 127.21449 41057 ft 535 kts 135°
2026-04-23 16:28 -18.10767 127.27092 41059 ft 534 kts 135°
2026-04-23 16:29 -18.15903 127.32726 41055 ft 533 kts 135°
2026-04-23 16:29 -18.21034 127.38360 41066 ft 534 kts 135°
2026-04-23 16:30 -18.26346 127.43810 41069 ft 534 kts 141°
2026-04-23 16:30 -18.32039 127.48791 41061 ft 532 kts 142°
2026-04-23 16:31 -18.37673 127.53842 41069 ft 532 kts 141°
2026-04-23 16:31 -18.43320 127.58856 41072 ft 530 kts 142°
2026-04-23 16:32 -18.48946 127.63872 41077 ft 530 kts 142°
2026-04-23 16:32 -18.54531 127.68857 41075 ft 529 kts 142°
2026-04-23 16:33 -18.60159 127.73876 41080 ft 531 kts 142°
2026-04-23 16:33 -18.65793 127.78917 41070 ft 531 kts 142°
2026-04-23 16:34 -18.71428 127.83952 41076 ft 531 kts 142°
2026-04-23 16:34 -18.77054 127.88993 41082 ft 531 kts 142°
2026-04-23 16:35 -18.82691 127.94041 41083 ft 531 kts 142°
2026-04-23 16:35 -18.88322 127.99093 41074 ft 530 kts 142°
2026-04-23 16:36 -18.93936 128.04131 41068 ft 529 kts 142°
2026-04-23 16:36 -18.99542 128.09170 41063 ft 529 kts 142°
2026-04-23 16:37 -19.05149 128.14211 41067 ft 530 kts 142°
2026-04-23 16:37 -19.10764 128.19266 41068 ft 530 kts 143°
2026-04-23 16:38 -19.16373 128.24319 41071 ft 529 kts 143°
2026-04-23 16:38 -19.21979 128.29375 41071 ft 530 kts 143°
2026-04-23 16:39 -19.27583 128.34434 41070 ft 530 kts 143°
2026-04-23 16:39 -19.33186 128.39497 41080 ft 529 kts 143°
2026-04-23 16:40 -19.38771 128.44547 41081 ft 528 kts 143°
2026-04-23 16:40 -19.44320 128.49570 41083 ft 528 kts 143°
2026-04-23 16:41 -19.49909 128.54633 41080 ft 529 kts 143°
2026-04-23 16:41 -19.55487 128.59694 41084 ft 527 kts 143°
2026-04-23 16:42 -19.61062 128.64753 41085 ft 527 kts 143°
2026-04-23 16:42 -19.66645 128.69825 41089 ft 531 kts 143°
2026-04-23 16:43 -19.72249 128.74923 41088 ft 531 kts 143°
2026-04-23 16:43 -19.77857 128.80028 41093 ft 531 kts 143°
2026-04-23 16:44 -19.83470 128.85143 41094 ft 532 kts 143°
2026-04-23 16:44 -19.89077 128.90258 41092 ft 531 kts 143°
2026-04-23 16:45 -19.94679 128.95372 41104 ft 532 kts 143°
2026-04-23 16:45 -20.00283 129.00494 41087 ft 531 kts 143°
2026-04-23 16:46 -20.05883 129.05616 41089 ft 531 kts 143°
2026-04-23 16:46 -20.11484 129.10745 41088 ft 531 kts 143°
2026-04-23 16:47 -20.17084 129.15878 41095 ft 530 kts 143°
2026-04-23 16:47 -20.22664 129.20997 41095 ft 530 kts 143°
2026-04-23 16:48 -20.28253 129.26130 41098 ft 531 kts 143°
2026-04-23 16:48 -20.33845 129.31271 41097 ft 531 kts 143°
2026-04-23 16:49 -20.39434 129.36414 41093 ft 531 kts 143°
2026-04-23 16:49 -20.45019 129.41558 41096 ft 531 kts 143°
2026-04-23 16:50 -20.50604 129.46708 41097 ft 530 kts 143°
2026-04-23 16:50 -20.56180 129.51854 41100 ft 530 kts 143°
2026-04-23 16:51 -20.61765 129.57013 41107 ft 531 kts 143°
2026-04-23 16:51 -20.67347 129.62177 41103 ft 530 kts 144°
2026-04-23 16:52 -20.72887 129.67305 41111 ft 531 kts 143°
2026-04-23 16:52 -20.78474 129.72483 41118 ft 532 kts 144°
2026-04-23 16:53 -20.84063 129.77667 41112 ft 532 kts 144°
2026-04-23 16:53 -20.89654 129.82859 41112 ft 531 kts 144°
2026-04-23 16:54 -20.95221 129.88034 41109 ft 530 kts 144°
2026-04-23 16:54 -20.99887 129.92375 41098 ft 531 kts 144°
2026-04-23 16:55 -21.05416 129.97524 41100 ft 530 kts 144°
2026-04-23 16:55 -21.10972 130.02703 41101 ft 529 kts 144°
2026-04-23 16:56 -21.16528 130.07888 41117 ft 530 kts 144°
2026-04-23 16:56 -21.22078 130.13074 41110 ft 529 kts 144°
2026-04-23 16:57 -21.27625 130.18259 41113 ft 530 kts 144°
2026-04-23 16:57 -21.33187 130.23467 41117 ft 531 kts 144°
2026-04-23 16:58 -21.38736 130.28667 41128 ft 529 kts 144°
2026-04-23 16:58 -21.44268 130.33856 41118 ft 527 kts 144°
2026-04-23 16:59 -21.49795 130.39045 41124 ft 528 kts 144°
2026-04-23 16:59 -21.55318 130.44239 41122 ft 528 kts 144°
2026-04-23 17:00 -21.60843 130.49437 41131 ft 527 kts 144°
2026-04-23 17:00 -21.66362 130.54636 41132 ft 528 kts 144°
2026-04-23 17:01 -21.71879 130.59839 41135 ft 527 kts 144°
2026-04-23 17:01 -21.77389 130.65040 41135 ft 527 kts 144°
2026-04-23 17:02 -21.82904 130.70252 41140 ft 527 kts 144°
2026-04-23 17:02 -21.88375 130.75428 41143 ft 527 kts 144°
2026-04-23 17:03 -21.93882 130.80643 41138 ft 527 kts 144°
2026-04-23 17:03 -21.99393 130.85868 41144 ft 529 kts 144°
2026-04-23 17:04 -22.04911 130.91105 41149 ft 529 kts 144°
2026-04-23 17:04 -22.10426 130.96345 41148 ft 527 kts 144°
2026-04-23 17:05 -22.15927 131.01576 41151 ft 528 kts 144°
2026-04-23 17:05 -22.21435 131.06821 41155 ft 528 kts 144°
2026-04-23 17:06 -22.26949 131.12078 41155 ft 529 kts 144°
2026-04-23 17:06 -22.32453 131.17331 41156 ft 527 kts 144°
2026-04-23 17:07 -22.37950 131.22581 41161 ft 529 kts 145°
2026-04-23 17:07 -22.43454 131.27845 41161 ft 528 kts 145°
2026-04-23 17:08 -22.48952 131.33109 41162 ft 528 kts 145°
2026-04-23 17:08 -22.54448 131.38377 41164 ft 527 kts 145°
2026-04-23 17:09 -22.59946 131.43651 41170 ft 528 kts 145°
2026-04-23 17:09 -22.65442 131.48931 41173 ft 528 kts 145°
2026-04-23 17:10 -22.70938 131.54217 41175 ft 528 kts 145°
2026-04-23 17:10 -22.76430 131.59504 41186 ft 528 kts 145°
2026-04-23 17:11 -22.81930 131.64804 41187 ft 530 kts 145°
2026-04-23 17:11 -22.87430 131.70113 41186 ft 529 kts 145°
2026-04-23 17:12 -22.92926 131.75422 41183 ft 529 kts 145°
2026-04-23 17:12 -22.98417 131.80733 41176 ft 528 kts 145°
2026-04-23 17:13 -23.03902 131.86041 41182 ft 528 kts 145°
2026-04-23 17:13 -23.09386 131.91358 41184 ft 529 kts 145°
2026-04-23 17:14 -23.14881 131.96690 41192 ft 530 kts 145°
2026-04-23 17:14 -23.20373 132.02027 41196 ft 529 kts 145°
2026-04-23 17:15 -23.25851 132.07354 41200 ft 528 kts 145°
2026-04-23 17:15 -23.31331 132.12690 41198 ft 529 kts 145°
2026-04-23 17:16 -23.36773 132.17996 41197 ft 529 kts 145°
2026-04-23 17:16 -23.42250 132.23341 41194 ft 528 kts 145°
2026-04-23 17:17 -23.47755 132.28722 41207 ft 528 kts 145°
2026-04-23 17:17 -23.53187 132.34034 41199 ft 528 kts 145°
2026-04-23 17:18 -23.61376 132.42057 41207 ft 527 kts 145°
2026-04-23 17:19 -23.66828 132.47407 41204 ft 527 kts 146°
2026-04-23 17:19 -23.72279 132.52761 41206 ft 527 kts 145°
2026-04-23 17:20 -23.77732 132.58123 41208 ft 528 kts 145°
2026-04-23 17:21 -23.88640 132.68870 41206 ft 527 kts 146°
2026-04-23 17:21 -23.96806 132.76932 41210 ft 528 kts 145°
2026-04-23 17:22 -24.05112 132.84784 41211 ft 524 kts 149°
2026-04-23 17:23 -24.13569 132.92369 41215 ft 524 kts 148°
2026-04-23 17:24 -24.22030 132.99958 41216 ft 523 kts 149°
2026-04-23 17:24 -24.30464 133.07543 41216 ft 522 kts 149°
2026-04-23 17:25 -24.38880 133.15128 41214 ft 522 kts 149°
2026-04-23 17:26 -24.50065 133.25226 41217 ft 521 kts 149°
2026-04-23 17:27 -24.58455 133.32815 41212 ft 521 kts 149°
2026-04-23 17:27 -24.64046 133.37881 41212 ft 521 kts 149°
2026-04-23 17:28 -24.69632 133.42949 41209 ft 521 kts 149°
2026-04-23 17:28 -24.75207 133.48012 41211 ft 519 kts 149°
2026-04-23 17:29 -24.80781 133.53080 41212 ft 519 kts 149°
2026-04-23 17:30 -24.88189 133.59826 41223 ft 519 kts 149°
2026-04-23 17:30 -24.97459 133.68284 41209 ft 518 kts 149°
2026-04-23 17:31 -25.03015 133.73359 41216 ft 519 kts 149°
2026-04-23 17:31 -25.08565 133.78438 41206 ft 518 kts 149°
2026-04-23 17:32 -25.14111 133.83516 41210 ft 519 kts 149°
2026-04-23 17:32 -25.19656 133.88604 41211 ft 518 kts 149°
2026-04-23 17:33 -25.25199 133.93691 41219 ft 518 kts 149°
2026-04-23 17:33 -25.30735 133.98783 41217 ft 517 kts 149°
2026-04-23 17:34 -25.36231 134.03840 41209 ft 517 kts 149°
2026-04-23 17:35 -25.44515 134.11478 41207 ft 517 kts 149°
2026-04-23 17:35 -25.52808 134.19137 41213 ft 518 kts 149°
2026-04-23 17:36 -25.58345 134.24259 41213 ft 517 kts 149°
2026-04-23 17:36 -25.63856 134.29364 41211 ft 517 kts 150°
2026-04-23 17:37 -25.69368 134.34475 41210 ft 517 kts 149°
2026-04-23 17:38 -25.77649 134.42165 41215 ft 518 kts 150°
2026-04-23 17:38 -25.83157 134.47292 41214 ft 516 kts 150°
2026-04-23 17:39 -25.88655 134.52410 41222 ft 516 kts 150°
2026-04-23 17:39 -25.94147 134.57533 41220 ft 515 kts 150°
2026-04-23 17:40 -25.99638 134.62659 41217 ft 515 kts 150°
2026-04-23 17:40 -26.05122 134.67789 41220 ft 516 kts 150°
2026-04-23 17:41 -26.10615 134.72929 41217 ft 516 kts 150°
2026-04-23 17:41 -26.18857 134.80657 41219 ft 517 kts 150°
2026-04-23 17:42 -26.26187 134.87543 41211 ft 518 kts 150°
2026-04-23 17:43 -26.31694 134.92723 41212 ft 518 kts 150°
2026-04-23 17:43 -26.37208 134.97917 41218 ft 520 kts 150°
2026-04-23 17:44 -26.42729 135.03126 41218 ft 518 kts 150°
2026-04-23 17:44 -26.50998 135.10935 41220 ft 519 kts 150°
2026-04-23 17:45 -26.59259 135.18754 41223 ft 520 kts 150°
2026-04-23 17:46 -26.67550 135.26620 41221 ft 522 kts 151°
2026-04-23 17:46 -26.73083 135.31874 41218 ft 522 kts 151°
2026-04-23 17:47 -26.78580 135.37105 41224 ft 522 kts 151°
2026-04-23 17:48 -26.86861 135.44994 41215 ft 520 kts 151°
2026-04-23 17:48 -26.92366 135.50247 41216 ft 520 kts 151°
2026-04-23 17:49 -26.97872 135.55510 41214 ft 520 kts 151°
2026-04-23 17:49 -27.03381 135.60781 41216 ft 520 kts 151°
2026-04-23 17:50 -27.08878 135.66048 41218 ft 520 kts 151°
2026-04-23 17:50 -27.17126 135.73966 41217 ft 520 kts 151°
2026-04-23 17:51 -27.22620 135.79247 41224 ft 520 kts 151°
2026-04-23 17:52 -27.30848 135.87171 41228 ft 520 kts 151°
2026-04-23 17:52 -27.39102 135.95136 41224 ft 522 kts 151°
2026-04-23 17:53 -27.47338 136.03102 41220 ft 519 kts 151°
2026-04-23 17:54 -27.52821 136.08411 41222 ft 520 kts 151°
2026-04-23 17:54 -27.60969 136.16318 41223 ft 520 kts 151°
2026-04-23 17:55 -27.69165 136.24285 41226 ft 518 kts 151°
2026-04-23 17:56 -27.74620 136.29599 41222 ft 518 kts 151°
2026-04-23 17:56 -27.82811 136.37590 41238 ft 518 kts 152°
2026-04-23 17:57 -27.88248 136.42904 41222 ft 517 kts 152°
2026-04-23 17:58 -27.96363 136.50848 41224 ft 517 kts 151°
2026-04-23 17:58 -28.01797 136.56176 41224 ft 517 kts 151°
2026-04-23 17:59 -28.07227 136.61512 41216 ft 516 kts 152°
2026-04-23 17:59 -28.12653 136.66843 41217 ft 516 kts 152°
2026-04-23 18:00 -28.18076 136.72186 41218 ft 517 kts 152°
2026-04-23 18:00 -28.23280 136.77949 41261 ft 541 kts 137°
2026-04-23 18:00 -28.25352 136.81567 41231 ft 554 kts 129°
2026-04-23 18:01 -28.27124 136.85481 41225 ft 561 kts 125°
2026-04-23 18:01 -28.30441 136.93487 41233 ft 556 kts 129°
2026-04-23 18:02 -28.34339 137.00975 41228 ft 548 kts 132°
2026-04-23 18:02 -28.38059 137.08604 41232 ft 555 kts 128°
2026-04-23 18:03 -28.41783 137.16232 41231 ft 550 kts 131°
2026-04-23 18:03 -28.45539 137.23826 41230 ft 553 kts 129°
2026-04-23 18:04 -28.49238 137.31474 41232 ft 551 kts 130°
2026-04-23 18:04 -28.52991 137.39095 41239 ft 553 kts 129°
2026-04-23 18:05 -28.56686 137.46740 41230 ft 551 kts 130°
2026-04-23 18:05 -28.60393 137.54322 41234 ft 553 kts 129°
2026-04-23 18:06 -28.64099 137.61993 41226 ft 552 kts 129°
2026-04-23 18:06 -28.67801 137.69615 41227 ft 551 kts 129°
2026-04-23 18:07 -28.71484 137.77246 41226 ft 550 kts 129°
2026-04-23 18:07 -28.75166 137.84877 41234 ft 547 kts 129°
2026-04-23 18:08 -28.78246 137.91262 41232 ft 549 kts 129°
2026-04-23 18:08 -28.82506 138.00133 41236 ft 548 kts 129°
2026-04-23 18:09 -28.86155 138.07736 41238 ft 547 kts 129°
2026-04-23 18:09 -28.89802 138.15351 41240 ft 546 kts 129°
2026-04-23 18:10 -28.93443 138.22967 41250 ft 547 kts 129°
2026-04-23 18:10 -28.97069 138.30571 41241 ft 545 kts 129°
2026-04-23 18:11 -29.00693 138.38177 41242 ft 545 kts 129°
2026-04-23 18:11 -29.04306 138.45780 41230 ft 544 kts 129°
2026-04-23 18:12 -29.07904 138.53363 41232 ft 543 kts 128°
2026-04-23 18:12 -29.11501 138.60961 41232 ft 543 kts 128°
2026-04-23 18:13 -29.15090 138.68556 41238 ft 541 kts 128°
2026-04-23 18:13 -29.18650 138.76101 41237 ft 540 kts 128°
2026-04-23 18:14 -29.22211 138.83663 41243 ft 540 kts 128°
2026-04-23 18:14 -29.25764 138.91227 41249 ft 536 kts 128°
2026-04-23 18:15 -29.29303 138.98765 41249 ft 538 kts 128°
2026-04-23 18:15 -29.32829 139.06304 41248 ft 537 kts 128°
2026-04-23 18:16 -29.36353 139.13842 41248 ft 534 kts 127°
2026-04-23 18:16 -29.39837 139.21311 41254 ft 535 kts 127°
2026-04-23 18:17 -29.45084 139.32589 41249 ft 534 kts 127°
2026-04-23 18:17 -29.48587 139.40132 41253 ft 535 kts 127°
2026-04-23 18:18 -29.52080 139.47675 41256 ft 535 kts 127°
2026-04-23 18:18 -29.55574 139.55228 41250 ft 534 kts 127°
2026-04-23 18:19 -29.59044 139.62748 41254 ft 534 kts 127°
2026-04-23 18:19 -29.62514 139.70280 41252 ft 533 kts 127°
2026-04-23 18:20 -29.66424 139.77351 41277 ft 511 kts 143°
2026-04-23 18:20 -29.69009 139.80043 41282 ft 494 kts 155°
2026-04-23 18:20 -29.71918 139.82018 41288 ft 480 kts 166°
2026-04-23 18:21 -29.75033 139.83218 41293 ft 466 kts 177°
2026-04-23 18:21 -29.78199 139.83610 41297 ft 453 kts 189°
2026-04-23 18:21 -29.81286 139.83200 41305 ft 443 kts 200°
2026-04-23 18:21 -29.84157 139.82019 41302 ft 435 kts 212°
2026-04-23 18:22 -29.86670 139.80139 41304 ft 429 kts 224°
2026-04-23 18:22 -29.88709 139.77658 41305 ft 427 kts 235°
2026-04-23 18:22 -29.91356 139.71573 41275 ft 424 kts 246°
2026-04-23 18:23 -29.96935 139.64054 41310 ft 425 kts 211°
2026-04-23 18:24 -30.02712 139.62214 41312 ft 446 kts 187°
2026-04-23 18:24 -30.05843 139.62471 41313 ft 459 kts 175°
2026-04-23 18:24 -30.08949 139.63537 41314 ft 474 kts 163°
2026-04-23 18:25 -30.14475 139.67927 41319 ft 503 kts 140°
2026-04-23 18:25 -30.16704 139.71190 41319 ft 518 kts 128°
2026-04-23 18:25 -30.18377 139.74932 41325 ft 530 kts 118°
2026-04-23 18:26 -30.20704 139.82986 41298 ft 534 kts 111°
2026-04-23 18:26 -30.22606 139.91305 41288 ft 535 kts 110°
2026-04-23 18:27 -30.24407 139.99665 41280 ft 535 kts 109°
2026-04-23 18:27 -30.26202 140.07988 41288 ft 534 kts 109°
2026-04-23 18:28 -30.28008 140.16305 41286 ft 533 kts 109°
2026-04-23 18:28 -30.29822 140.24604 41289 ft 531 kts 109°
2026-04-23 18:29 -30.31644 140.32911 41280 ft 533 kts 110°
2026-04-23 18:29 -30.33449 140.41232 41280 ft 533 kts 110°
2026-04-23 18:30 -30.35261 140.49529 41272 ft 531 kts 109°
2026-04-23 18:30 -30.36949 140.57864 41292 ft 533 kts 106°
2026-04-23 18:31 -30.38330 140.66308 41296 ft 533 kts 105°
2026-04-23 18:31 -30.39440 140.73312 41292 ft 532 kts 105°
2026-04-23 18:32 -30.40947 140.81672 41294 ft 530 kts 107°
2026-04-23 18:32 -30.42569 140.90008 41297 ft 528 kts 108°
2026-04-23 18:33 -30.43411 140.94133 41295 ft 527 kts 108°
2026-04-23 18:33 -30.44138 140.97592 41300 ft 527 kts 109°
2026-04-23 18:34 -30.45904 141.05838 41299 ft 527 kts 109°
2026-04-23 18:34 -30.47686 141.14076 41296 ft 525 kts 109°
2026-04-23 18:35 -30.49467 141.22249 41300 ft 524 kts 109°
2026-04-23 18:35 -30.51258 141.30431 41304 ft 523 kts 109°
2026-04-23 18:36 -30.53055 141.38603 41309 ft 521 kts 109°
2026-04-23 18:36 -30.54852 141.46742 41307 ft 521 kts 109°
2026-04-23 18:37 -30.56655 141.54878 41307 ft 520 kts 109°
2026-04-23 18:37 -30.58462 141.63016 41308 ft 521 kts 109°
2026-04-23 18:38 -30.58994 141.65410 41309 ft 521 kts 109°